Time,TemperatureF,DewpointF,PressureIn,WindDirection,WindDirectionDegrees,WindSpeedMPH,WindSpeedGustMPH,Humidity,HourlyPrecipIn,Conditions,Clouds,dailyrainin,SoftwareType,DateUTC
2013-06-27 00:00:00,82.2,73.0,30.05,SSE,163,7.4,7.4,76,0.00,,,0.05,TxWx,2013-06-27 04:00:00,
2013-06-27 00:01:00,82.0,73.0,30.04,SE,141,9.3,9.3,75,0.00,,,0.05,TxWx,2013-06-27 04:01:00,
2013-06-27 00:03:00,82.3,73.0,30.04,SE,141,9.9,9.9,76,0.00,,,0.00,TxWx,2013-06-27 04:03:00,
2013-06-27 00:07:00,82.3,73.0,30.04,SE,141,9.3,9.3,76,0.00,,,0.00,TxWx,2013-06-27 04:07:00,
2013-06-27 00:08:00,82.2,74.0,30.03,ESE,118,11.1,12.4,76,0.00,,,0.00,TxWx,2013-06-27 04:08:00,
2013-06-27 00:10:00,82.3,74.0,30.03,SE,141,8.0,9.3,76,0.00,,,0.00,TxWx,2013-06-27 04:10:00,
2013-06-27 00:11:00,82.2,74.0,30.03,SE,141,9.3,9.3,76,0.00,,,0.00,TxWx,2013-06-27 04:11:00,
2013-06-27 00:12:00,82.1,74.0,30.03,ESE,118,9.9,9.9,76,0.00,,,0.00,TxWx,2013-06-27 04:12:00,
2013-06-27 00:15:00,82.1,73.0,30.03,SSE,163,9.3,9.9,76,0.00,,,0.00,TxWx,2013-06-27 04:15:00,
2013-06-27 00:16:00,82.1,73.0,30.03,SE,141,9.9,10.5,76,0.00,,,0.00,TxWx,2013-06-27 04:16:00,
2013-06-27 00:17:00,82.1,73.0,30.03,SE,141,9.9,10.5,76,0.00,,,0.00,TxWx,2013-06-27 04:17:00,
2013-06-27 00:19:00,82.1,73.0,30.03,SE,141,9.9,9.9,76,0.00,,,0.00,TxWx,2013-06-27 04:19:00,
2013-06-27 00:21:00,82.3,74.0,30.03,SE,141,9.3,9.3,76,0.00,,,0.00,TxWx,2013-06-27 04:21:00,
2013-06-27 00:22:00,82.1,73.0,30.03,SE,141,6.2,8.0,76,0.00,,,0.00,TxWx,2013-06-27 04:22:00,
2013-06-27 00:23:00,82.1,73.0,30.03,SE,141,6.8,8.7,76,0.00,,,0.00,TxWx,2013-06-27 04:23:00,
2013-06-27 00:24:00,82.1,73.0,30.03,SE,141,6.2,6.8,76,0.00,,,0.00,TxWx,2013-06-27 04:24:00,
2013-06-27 00:26:00,82.2,73.0,30.03,ESE,118,7.4,8.0,76,0.00,,,0.00,TxWx,2013-06-27 04:26:00,
2013-06-27 00:28:00,81.9,73.0,30.03,SE,141,6.8,6.8,75,0.00,,,0.00,TxWx,2013-06-27 04:28:00,
2013-06-27 00:30:00,82.2,73.0,30.03,SE,141,8.0,8.7,76,0.00,,,0.00,TxWx,2013-06-27 04:30:00,
2013-06-27 00:31:00,82.3,73.0,30.03,SE,141,8.0,8.0,76,0.00,,,0.00,TxWx,2013-06-27 04:31:00,
2013-06-27 00:32:00,82.3,73.0,30.03,SE,141,8.7,8.7,76,0.00,,,0.00,TxWx,2013-06-27 04:32:00,
2013-06-27 00:33:00,82.0,73.0,30.03,ESE,118,8.7,9.9,76,0.00,,,0.00,TxWx,2013-06-27 04:33:00,
2013-06-27 00:34:00,82.1,73.0,30.03,SE,141,9.3,9.3,76,0.00,,,0.00,TxWx,2013-06-27 04:34:00,
2013-06-27 00:37:00,82.0,73.0,30.03,SE,141,9.3,12.4,75,0.00,,,0.00,TxWx,2013-06-27 04:37:00,
2013-06-27 00:39:00,82.2,73.0,30.03,SE,141,9.3,10.5,76,0.00,,,0.00,TxWx,2013-06-27 04:39:00,
2013-06-27 00:40:00,82.5,73.0,30.03,SE,141,7.4,7.4,76,0.00,,,0.00,TxWx,2013-06-27 04:40:00,
2013-06-27 00:42:00,82.4,74.0,30.03,SE,141,8.7,8.7,76,0.00,,,0.00,TxWx,2013-06-27 04:42:00,
2013-06-27 00:45:00,82.0,73.0,30.03,SE,141,9.3,9.3,76,0.00,,,0.00,TxWx,2013-06-27 04:45:00,
2013-06-27 00:46:00,82.1,74.0,30.03,SE,141,9.9,9.9,76,0.00,,,0.00,TxWx,2013-06-27 04:46:00,
2013-06-27 00:47:00,82.1,74.0,30.03,SE,141,9.3,9.3,76,0.00,,,0.00,TxWx,2013-06-27 04:47:00,
2013-06-27 00:50:00,81.8,73.0,30.02,SE,141,10.5,10.5,76,0.00,,,0.00,TxWx,2013-06-27 04:50:00,
2013-06-27 00:51:00,82.3,74.0,30.02,SE,141,9.9,9.9,76,0.00,,,0.00,TxWx,2013-06-27 04:51:00,
2013-06-27 00:54:00,82.2,74.0,30.02,SE,141,9.3,9.3,76,0.00,,,0.00,TxWx,2013-06-27 04:54:00,
2013-06-27 00:55:00,82.2,74.0,30.02,SE,141,9.3,9.3,76,0.00,,,0.00,TxWx,2013-06-27 04:55:00,
2013-06-27 00:56:00,82.1,74.0,30.02,SE,141,9.3,11.1,76,0.00,,,0.00,TxWx,2013-06-27 04:56:00,
2013-06-27 00:57:00,82.2,74.0,30.02,SE,141,8.7,9.3,77,0.00,,,0.00,TxWx,2013-06-27 04:57:00,
2013-06-27 01:00:00,82.1,74.0,30.02,ESE,118,8.0,8.7,77,0.00,,,0.00,TxWx,2013-06-27 05:00:00,
2013-06-27 01:02:00,82.3,74.0,30.02,SE,141,8.0,8.7,77,0.00,,,0.00,TxWx,2013-06-27 05:02:00,
2013-06-27 01:03:00,82.1,74.0,30.02,SE,141,9.9,9.9,77,0.00,,,0.00,TxWx,2013-06-27 05:03:00,
2013-06-27 01:05:00,82.0,74.0,30.02,ESE,118,8.7,9.3,77,0.00,,,0.00,TxWx,2013-06-27 05:05:00,
2013-06-27 01:06:00,82.3,74.0,30.03,SE,141,8.7,8.7,77,0.00,,,0.00,TxWx,2013-06-27 05:06:00,
2013-06-27 01:08:00,82.0,74.0,30.03,ESE,118,8.7,8.7,77,0.00,,,0.00,TxWx,2013-06-27 05:08:00,
2013-06-27 01:09:00,81.8,74.0,30.03,SE,141,6.8,8.0,76,0.00,,,0.00,TxWx,2013-06-27 05:09:00,
2013-06-27 01:10:00,82.0,74.0,30.02,SE,141,8.7,8.7,76,0.00,,,0.00,TxWx,2013-06-27 05:10:00,
2013-06-27 01:13:00,82.0,74.0,30.02,SE,141,6.8,8.0,77,0.00,,,0.00,TxWx,2013-06-27 05:13:00,
2013-06-27 01:14:00,81.9,74.0,30.03,SE,141,7.4,8.0,76,0.00,,,0.00,TxWx,2013-06-27 05:14:00,
2013-06-27 01:15:00,81.8,74.0,30.03,SE,141,8.7,8.7,76,0.00,,,0.00,TxWx,2013-06-27 05:15:00,
2013-06-27 01:17:00,82.0,74.0,30.02,SE,141,8.0,8.7,76,0.00,,,0.00,TxWx,2013-06-27 05:17:00,
2013-06-27 01:18:00,82.1,74.0,30.03,SE,141,8.7,8.7,76,0.00,,,0.00,TxWx,2013-06-27 05:18:00,
2013-06-27 01:20:00,82.0,74.0,30.02,SE,141,7.4,7.4,76,0.00,,,0.00,TxWx,2013-06-27 05:20:00,
2013-06-27 01:21:00,82.2,74.0,30.02,SE,141,7.4,7.4,76,0.00,,,0.00,TxWx,2013-06-27 05:21:00,
2013-06-27 01:22:00,81.9,73.0,30.02,SE,141,5.6,5.6,76,0.00,,,0.00,TxWx,2013-06-27 05:22:00,
2013-06-27 01:23:00,82.2,74.0,30.02,SE,141,6.2,6.2,76,0.00,,,0.00,TxWx,2013-06-27 05:23:00,
2013-06-27 01:24:00,82.1,73.0,30.02,SE,141,7.4,7.4,76,0.00,,,0.00,TxWx,2013-06-27 05:24:00,
2013-06-27 01:25:00,82.2,74.0,30.02,SE,141,6.8,7.4,76,0.00,,,0.00,TxWx,2013-06-27 05:25:00,
2013-06-27 01:29:00,82.2,74.0,30.01,SE,141,8.7,8.7,76,0.00,,,0.00,TxWx,2013-06-27 05:29:00,
2013-06-27 01:30:00,81.9,74.0,30.01,SE,141,10.5,11.8,76,0.00,,,0.00,TxWx,2013-06-27 05:30:00,
2013-06-27 01:31:00,81.8,73.0,30.01,SE,141,10.5,11.1,76,0.00,,,0.00,TxWx,2013-06-27 05:31:00,
2013-06-27 01:34:00,82.3,74.0,30.01,SE,141,8.7,8.7,77,0.00,,,0.00,TxWx,2013-06-27 05:34:00,
2013-06-27 01:36:00,82.1,74.0,30.01,SE,141,8.7,8.7,77,0.00,,,0.00,TxWx,2013-06-27 05:36:00,
2013-06-27 01:37:00,82.0,74.0,30.01,SE,141,8.0,9.9,77,0.00,,,0.00,TxWx,2013-06-27 05:37:00,
2013-06-27 01:41:00,82.0,74.0,30.01,SE,141,6.2,6.2,76,0.00,,,0.00,TxWx,2013-06-27 05:41:00,
2013-06-27 01:43:00,82.0,74.0,30.01,SSE,163,5.6,5.6,76,0.00,,,0.00,TxWx,2013-06-27 05:43:00,
2013-06-27 01:44:00,82.3,74.0,30.01,SSE,163,7.4,7.4,77,0.00,,,0.00,TxWx,2013-06-27 05:44:00,
2013-06-27 01:46:00,81.7,74.0,30.01,SE,141,10.5,10.5,76,0.00,,,0.00,TxWx,2013-06-27 05:46:00,
2013-06-27 01:48:00,81.9,73.0,30.01,ESE,118,9.9,9.9,76,0.00,,,0.00,TxWx,2013-06-27 05:48:00,
2013-06-27 01:49:00,82.1,74.0,30.01,SE,141,11.1,11.1,76,0.00,,,0.00,TxWx,2013-06-27 05:49:00,
2013-06-27 01:51:00,81.9,73.0,30.01,SE,141,8.7,8.7,76,0.00,,,0.00,TxWx,2013-06-27 05:51:00,
2013-06-27 01:53:00,82.0,73.0,30.01,ESE,118,9.9,11.8,76,0.00,,,0.00,TxWx,2013-06-27 05:53:00,
2013-06-27 01:54:00,81.8,73.0,30.01,ESE,118,10.5,11.1,76,0.00,,,0.00,TxWx,2013-06-27 05:54:00,
2013-06-27 01:56:00,82.1,73.0,30.01,SE,141,9.3,9.3,75,0.00,,,0.00,TxWx,2013-06-27 05:56:00,
2013-06-27 01:57:00,82.1,73.0,30.01,SE,141,9.9,9.9,75,0.00,,,0.00,TxWx,2013-06-27 05:57:00,
2013-06-27 01:59:00,81.8,73.0,30.00,SE,141,10.5,11.8,75,0.00,,,0.00,TxWx,2013-06-27 05:59:00,
2013-06-27 02:01:00,82.3,73.0,30.01,SE,141,9.3,9.3,75,0.00,,,0.00,TxWx,2013-06-27 06:01:00,
2013-06-27 02:02:00,82.0,73.0,30.01,ESE,118,8.0,9.3,75,0.00,,,0.00,TxWx,2013-06-27 06:02:00,
2013-06-27 02:03:00,82.3,73.0,30.01,SE,141,7.4,7.4,75,0.00,,,0.00,TxWx,2013-06-27 06:03:00,
2013-06-27 02:06:00,82.1,73.0,30.01,ESE,118,7.4,7.4,75,0.00,,,0.00,TxWx,2013-06-27 06:06:00,
2013-06-27 02:07:00,82.0,73.0,30.01,SE,141,8.7,8.7,75,0.00,,,0.00,TxWx,2013-06-27 06:07:00,
2013-06-27 02:08:00,82.3,73.0,30.01,SE,141,6.8,6.8,75,0.00,,,0.00,TxWx,2013-06-27 06:08:00,
2013-06-27 02:09:00,82.5,73.0,30.01,SE,141,5.6,6.2,75,0.00,,,0.00,TxWx,2013-06-27 06:09:00,
2013-06-27 02:11:00,82.2,73.0,30.00,ESE,118,6.8,7.4,75,0.00,,,0.00,TxWx,2013-06-27 06:11:00,
2013-06-27 02:12:00,82.1,73.0,30.00,SE,141,8.7,9.3,75,0.00,,,0.00,TxWx,2013-06-27 06:12:00,
2013-06-27 02:14:00,82.5,73.0,30.00,SE,141,7.4,8.0,76,0.00,,,0.00,TxWx,2013-06-27 06:14:00,
2013-06-27 02:16:00,82.3,73.0,30.00,SE,141,8.0,8.0,75,0.00,,,0.00,TxWx,2013-06-27 06:16:00,
2013-06-27 02:18:00,82.2,73.0,30.00,SE,141,6.8,7.4,76,0.00,,,0.00,TxWx,2013-06-27 06:18:00,
2013-06-27 02:20:00,82.2,73.0,30.00,SE,141,7.4,8.0,76,0.00,,,0.00,TxWx,2013-06-27 06:20:00,
2013-06-27 02:21:00,81.8,73.0,30.00,ESE,118,9.3,9.9,76,0.00,,,0.00,TxWx,2013-06-27 06:21:00,
2013-06-27 02:22:00,82.0,73.0,30.00,SE,141,8.0,8.7,76,0.00,,,0.00,TxWx,2013-06-27 06:22:00,
2013-06-27 02:23:00,82.0,73.0,30.00,SE,141,9.3,9.3,76,0.00,,,0.00,TxWx,2013-06-27 06:23:00,
2013-06-27 02:25:00,82.0,73.0,30.00,SE,141,8.0,8.0,76,0.00,,,0.00,TxWx,2013-06-27 06:25:00,
2013-06-27 02:26:00,82.0,73.0,30.00,SE,141,7.4,8.7,76,0.00,,,0.00,TxWx,2013-06-27 06:26:00,
2013-06-27 02:27:00,81.9,73.0,30.00,ESE,118,8.0,8.7,76,0.00,,,0.00,TxWx,2013-06-27 06:27:00,
2013-06-27 02:28:00,81.7,73.0,30.00,SE,141,8.0,8.7,76,0.00,,,0.00,TxWx,2013-06-27 06:28:00,
2013-06-27 02:31:00,82.1,73.0,30.00,SE,141,7.4,8.0,76,0.00,,,0.00,TxWx,2013-06-27 06:31:00,
2013-06-27 02:32:00,82.0,73.0,30.00,ESE,118,7.4,7.4,76,0.00,,,0.00,TxWx,2013-06-27 06:32:00,
2013-06-27 02:33:00,81.9,73.0,30.00,ESE,118,6.8,7.4,76,0.00,,,0.00,TxWx,2013-06-27 06:33:00,
2013-06-27 02:34:00,82.1,73.0,30.00,SE,141,7.4,7.4,76,0.00,,,0.00,TxWx,2013-06-27 06:34:00,
2013-06-27 02:36:00,81.9,73.0,30.01,SE,141,9.3,9.3,75,0.00,,,0.00,TxWx,2013-06-27 06:36:00,
2013-06-27 02:37:00,82.0,73.0,30.01,SE,141,6.2,6.8,76,0.00,,,0.00,TxWx,2013-06-27 06:37:00,
2013-06-27 02:38:00,82.0,73.0,30.01,SE,141,5.6,6.2,75,0.00,,,0.00,TxWx,2013-06-27 06:38:00,
2013-06-27 02:40:00,81.9,73.0,30.01,SE,141,5.6,5.6,75,0.00,,,0.00,TxWx,2013-06-27 06:40:00,
2013-06-27 02:42:00,82.0,73.0,30.01,SE,141,4.3,5.6,75,0.00,,,0.00,TxWx,2013-06-27 06:42:00,
2013-06-27 02:43:00,82.1,73.0,30.01,SE,141,3.7,4.3,75,0.00,,,0.00,TxWx,2013-06-27 06:43:00,
2013-06-27 02:44:00,82.1,73.0,30.01,SE,141,6.2,6.2,75,0.00,,,0.00,TxWx,2013-06-27 06:44:00,
2013-06-27 02:45:00,82.2,73.0,30.01,SE,141,5.6,5.6,75,0.00,,,0.00,TxWx,2013-06-27 06:45:00,
2013-06-27 02:48:00,82.2,73.0,30.00,SE,141,4.3,4.3,75,0.00,,,0.00,TxWx,2013-06-27 06:48:00,
2013-06-27 02:50:00,82.1,73.0,30.01,SSE,163,6.2,6.2,76,0.00,,,0.00,TxWx,2013-06-27 06:50:00,
2013-06-27 02:51:00,82.2,73.0,30.01,SSE,163,4.3,4.3,76,0.00,,,0.00,TxWx,2013-06-27 06:51:00,
2013-06-27 02:52:00,82.0,73.0,30.01,SE,141,5.0,5.0,76,0.00,,,0.00,TxWx,2013-06-27 06:52:00,
2013-06-27 02:53:00,82.0,73.0,30.01,SE,141,5.0,5.0,76,0.00,,,0.00,TxWx,2013-06-27 06:53:00,
2013-06-27 02:54:00,82.1,73.0,30.01,South,186,5.0,5.6,76,0.00,,,0.00,TxWx,2013-06-27 06:54:00,
2013-06-27 02:55:00,82.2,73.0,30.01,SE,141,5.0,5.0,76,0.00,,,0.00,TxWx,2013-06-27 06:55:00,
2013-06-27 02:58:00,82.0,73.0,30.01,SE,141,5.0,5.0,76,0.00,,,0.00,TxWx,2013-06-27 06:58:00,
2013-06-27 02:59:00,81.8,73.0,30.00,SE,141,5.6,6.8,75,0.00,,,0.00,TxWx,2013-06-27 06:59:00,
2013-06-27 03:02:00,81.7,73.0,30.01,SE,141,6.8,6.8,75,0.00,,,0.00,TxWx,2013-06-27 07:02:00,
2013-06-27 03:03:00,82.0,73.0,30.01,SE,141,6.2,6.2,75,0.00,,,0.00,TxWx,2013-06-27 07:03:00,
2013-06-27 03:04:00,82.0,73.0,30.01,SSE,163,5.6,6.8,75,0.00,,,0.00,TxWx,2013-06-27 07:04:00,
2013-06-27 03:06:00,82.1,73.0,30.01,SSE,163,5.6,5.6,75,0.00,,,0.00,TxWx,2013-06-27 07:06:00,
2013-06-27 03:08:00,82.0,73.0,30.01,SE,141,5.6,6.2,75,0.00,,,0.00,TxWx,2013-06-27 07:08:00,
2013-06-27 03:10:00,82.1,73.0,30.01,South,186,6.8,6.8,75,0.00,,,0.00,TxWx,2013-06-27 07:10:00,
2013-06-27 03:13:00,82.0,73.0,30.00,SE,141,6.2,6.2,75,0.00,,,0.00,TxWx,2013-06-27 07:13:00,
2013-06-27 03:15:00,82.2,73.0,30.01,SSE,163,5.0,5.0,75,0.00,,,0.00,TxWx,2013-06-27 07:15:00,
2013-06-27 03:17:00,82.3,73.0,30.01,South,186,6.2,6.8,76,0.00,,,0.00,TxWx,2013-06-27 07:17:00,
2013-06-27 03:19:00,82.1,73.0,30.01,SE,141,7.4,7.4,76,0.00,,,0.00,TxWx,2013-06-27 07:19:00,
2013-06-27 03:20:00,82.0,73.0,30.01,SE,141,6.2,7.4,75,0.00,,,0.00,TxWx,2013-06-27 07:20:00,
2013-06-27 03:22:00,82.1,73.0,30.00,SSE,163,3.7,5.0,76,0.00,,,0.00,TxWx,2013-06-27 07:22:00,
2013-06-27 03:24:00,81.8,73.0,30.00,SSE,163,6.8,6.8,75,0.00,,,0.00,TxWx,2013-06-27 07:24:00,
2013-06-27 03:25:00,81.5,73.0,30.00,SE,141,6.8,8.0,75,0.00,,,0.00,TxWx,2013-06-27 07:25:00,
2013-06-27 03:26:00,81.9,73.0,30.00,SSE,163,5.6,7.4,75,0.00,,,0.00,TxWx,2013-06-27 07:26:00,
2013-06-27 03:28:00,81.9,73.0,30.00,SSE,163,5.6,5.6,75,0.00,,,0.00,TxWx,2013-06-27 07:28:00,
2013-06-27 03:30:00,82.0,73.0,30.00,SSE,163,4.3,5.6,75,0.00,,,0.00,TxWx,2013-06-27 07:30:00,
2013-06-27 03:32:00,82.3,73.0,30.00,SE,141,6.2,6.2,75,0.00,,,0.00,TxWx,2013-06-27 07:32:00,
2013-06-27 03:34:00,82.1,73.0,30.00,SSE,163,6.8,6.8,75,0.00,,,0.00,TxWx,2013-06-27 07:34:00,
2013-06-27 03:35:00,82.1,73.0,30.00,SSE,163,6.8,6.8,75,0.00,,,0.00,TxWx,2013-06-27 07:35:00,
2013-06-27 03:36:00,82.1,73.0,30.00,ESE,118,6.2,6.2,75,0.00,,,0.00,TxWx,2013-06-27 07:36:00,
2013-06-27 03:39:00,82.1,73.0,30.00,SSE,163,7.4,8.0,75,0.00,,,0.00,TxWx,2013-06-27 07:39:00,
2013-06-27 03:40:00,82.0,73.0,30.00,SSE,163,6.8,6.8,75,0.00,,,0.00,TxWx,2013-06-27 07:40:00,
2013-06-27 03:41:00,82.1,73.0,30.00,SE,141,7.4,7.4,75,0.00,,,0.00,TxWx,2013-06-27 07:41:00,
2013-06-27 03:42:00,82.0,73.0,30.00,SSE,163,6.2,6.8,75,0.00,,,0.00,TxWx,2013-06-27 07:42:00,
2013-06-27 03:46:00,82.3,73.0,30.00,SSE,163,5.6,6.8,76,0.00,,,0.00,TxWx,2013-06-27 07:46:00,
2013-06-27 03:47:00,82.1,73.0,30.00,SE,141,8.0,8.0,76,0.00,,,0.00,TxWx,2013-06-27 07:47:00,
2013-06-27 03:48:00,82.1,73.0,29.99,SE,141,7.4,7.4,76,0.00,,,0.00,TxWx,2013-06-27 07:48:00,
2013-06-27 03:52:00,82.0,73.0,30.00,SE,141,6.8,7.4,76,0.00,,,0.00,TxWx,2013-06-27 07:52:00,
2013-06-27 03:53:00,82.1,73.0,30.00,SE,141,5.6,6.2,76,0.00,,,0.00,TxWx,2013-06-27 07:53:00,
2013-06-27 03:55:00,81.9,73.0,30.00,SSE,163,6.2,7.4,76,0.00,,,0.00,TxWx,2013-06-27 07:55:00,
2013-06-27 03:56:00,82.2,74.0,30.00,SSE,163,7.4,7.4,76,0.00,,,0.00,TxWx,2013-06-27 07:56:00,
2013-06-27 03:58:00,82.0,73.0,30.00,SSE,163,6.2,7.4,76,0.00,,,0.00,TxWx,2013-06-27 07:58:00,
2013-06-27 03:59:00,81.9,73.0,30.00,SE,141,8.7,8.7,76,0.00,,,0.00,TxWx,2013-06-27 07:59:00,
2013-06-27 04:01:00,82.0,73.0,30.00,SSE,163,6.8,7.4,76,0.00,,,0.00,TxWx,2013-06-27 08:01:00,
2013-06-27 04:02:00,81.9,73.0,30.00,SE,141,6.8,6.8,75,0.00,,,0.00,TxWx,2013-06-27 08:02:00,
2013-06-27 04:04:00,82.2,73.0,29.99,SE,141,6.8,6.8,76,0.00,,,0.00,TxWx,2013-06-27 08:04:00,
2013-06-27 04:05:00,82.0,73.0,29.99,SE,141,9.3,9.9,76,0.00,,,0.00,TxWx,2013-06-27 08:05:00,
2013-06-27 04:07:00,81.8,73.0,30.00,ESE,118,6.8,6.8,75,0.00,,,0.00,TxWx,2013-06-27 08:07:00,
2013-06-27 04:08:00,82.2,73.0,30.00,SE,141,4.3,5.0,75,0.00,,,0.00,TxWx,2013-06-27 08:08:00,
2013-06-27 04:10:00,82.0,73.0,29.99,South,186,8.0,8.0,75,0.00,,,0.00,TxWx,2013-06-27 08:10:00,
2013-06-27 04:11:00,81.9,73.0,29.99,SE,141,3.1,3.1,75,0.00,,,0.00,TxWx,2013-06-27 08:11:00,
2013-06-27 04:13:00,81.8,73.0,30.00,South,186,8.0,9.9,75,0.00,,,0.00,TxWx,2013-06-27 08:13:00,
2013-06-27 04:14:00,81.9,73.0,30.00,SE,141,6.2,6.8,75,0.00,,,0.00,TxWx,2013-06-27 08:14:00,
2013-06-27 04:16:00,82.2,73.0,29.99,SSE,163,5.6,6.8,75,0.00,,,0.00,TxWx,2013-06-27 08:16:00,
2013-06-27 04:18:00,81.8,73.0,30.00,SE,141,6.2,8.7,75,0.00,,,0.00,TxWx,2013-06-27 08:18:00,
2013-06-27 04:19:00,81.9,73.0,30.00,SE,141,8.7,8.7,75,0.00,,,0.00,TxWx,2013-06-27 08:19:00,
2013-06-27 04:20:00,81.8,73.0,30.00,SE,141,8.0,8.0,74,0.00,,,0.00,TxWx,2013-06-27 08:20:00,
2013-06-27 04:22:00,82.0,73.0,29.99,SSE,163,6.8,7.4,75,0.00,,,0.00,TxWx,2013-06-27 08:22:00,
2013-06-27 04:24:00,82.2,73.0,30.00,South,186,7.4,8.0,75,0.00,,,0.00,TxWx,2013-06-27 08:24:00,
2013-06-27 04:25:00,81.9,73.0,29.99,SE,141,6.8,6.8,75,0.00,,,0.00,TxWx,2013-06-27 08:25:00,
2013-06-27 04:26:00,82.0,73.0,30.00,SE,141,8.0,8.7,75,0.00,,,0.00,TxWx,2013-06-27 08:26:00,
2013-06-27 04:28:00,82.1,73.0,30.00,SE,141,5.0,5.0,75,0.00,,,0.00,TxWx,2013-06-27 08:28:00,
2013-06-27 04:29:00,82.3,73.0,30.00,SE,141,7.4,7.4,75,0.00,,,0.00,TxWx,2013-06-27 08:29:00,
2013-06-27 04:30:00,82.1,73.0,30.00,SSE,163,6.8,6.8,75,0.00,,,0.00,TxWx,2013-06-27 08:30:00,
2013-06-27 04:32:00,82.1,73.0,30.00,ESE,118,6.2,6.2,75,0.00,,,0.00,TxWx,2013-06-27 08:32:00,
2013-06-27 04:35:00,82.2,73.0,29.99,SE,141,5.0,5.6,76,0.00,,,0.00,TxWx,2013-06-27 08:35:00,
2013-06-27 04:36:00,82.2,73.0,30.00,SE,141,5.6,5.6,76,0.00,,,0.00,TxWx,2013-06-27 08:36:00,
2013-06-27 04:37:00,82.1,73.0,30.00,SE,141,3.1,3.7,76,0.00,,,0.00,TxWx,2013-06-27 08:37:00,
2013-06-27 04:40:00,81.6,73.0,30.00,SE,141,3.7,4.3,75,0.00,,,0.00,TxWx,2013-06-27 08:40:00,
2013-06-27 04:41:00,81.5,72.0,30.00,SSE,163,6.8,7.4,75,0.00,,,0.00,TxWx,2013-06-27 08:41:00,
2013-06-27 04:42:00,81.6,73.0,30.00,SSE,163,5.6,5.6,75,0.00,,,0.00,TxWx,2013-06-27 08:42:00,
2013-06-27 04:44:00,82.0,73.0,30.00,SE,141,5.0,5.0,75,0.00,,,0.00,TxWx,2013-06-27 08:44:00,
2013-06-27 04:45:00,82.0,73.0,30.00,SE,141,6.8,6.8,75,0.00,,,0.00,TxWx,2013-06-27 08:45:00,
2013-06-27 04:47:00,82.1,73.0,30.00,SE,141,3.7,3.7,75,0.00,,,0.00,TxWx,2013-06-27 08:47:00,
2013-06-27 04:49:00,82.0,73.0,30.00,SE,141,5.0,5.0,75,0.00,,,0.00,TxWx,2013-06-27 08:49:00,
2013-06-27 04:51:00,82.0,73.0,30.00,ESE,118,3.7,3.7,75,0.00,,,0.00,TxWx,2013-06-27 08:51:00,
2013-06-27 04:53:00,81.9,73.0,30.00,South,186,3.1,3.7,75,0.00,,,0.00,TxWx,2013-06-27 08:53:00,
2013-06-27 04:54:00,82.0,73.0,30.00,SE,141,3.7,3.7,75,0.00,,,0.00,TxWx,2013-06-27 08:54:00,
2013-06-27 04:56:00,82.0,73.0,30.00,SSE,163,3.7,4.3,75,0.00,,,0.00,TxWx,2013-06-27 08:56:00,
2013-06-27 04:57:00,82.1,73.0,30.00,South,186,3.1,3.7,75,0.00,,,0.00,TxWx,2013-06-27 08:57:00,
2013-06-27 04:58:00,82.2,73.0,30.00,SSE,163,3.7,4.3,75,0.00,,,0.00,TxWx,2013-06-27 08:58:00,
2013-06-27 05:02:00,81.9,73.0,30.00,SSW,208,5.0,5.6,75,0.00,,,0.00,TxWx,2013-06-27 09:02:00,
2013-06-27 05:03:00,81.8,73.0,30.00,SSE,163,3.1,4.3,75,0.00,,,0.00,TxWx,2013-06-27 09:03:00,
2013-06-27 05:04:00,81.7,73.0,30.00,ESE,118,3.7,4.3,75,0.00,,,0.00,TxWx,2013-06-27 09:04:00,
2013-06-27 05:06:00,81.7,73.0,30.00,SSE,163,4.3,5.0,75,0.00,,,0.00,TxWx,2013-06-27 09:06:00,
2013-06-27 05:08:00,81.8,73.0,30.00,SE,141,5.6,5.6,75,0.00,,,0.00,TxWx,2013-06-27 09:08:00,
2013-06-27 05:09:00,82.0,73.0,30.00,SSE,163,2.5,2.5,75,0.00,,,0.00,TxWx,2013-06-27 09:09:00,
2013-06-27 05:10:00,82.0,73.0,30.00,South,186,2.5,2.5,75,0.00,,,0.00,TxWx,2013-06-27 09:10:00,
2013-06-27 05:12:00,81.9,73.0,30.00,South,186,1.2,1.9,75,0.00,,,0.00,TxWx,2013-06-27 09:12:00,
2013-06-27 05:14:00,81.9,73.0,30.00,South,186,2.5,2.5,75,0.00,,,0.00,TxWx,2013-06-27 09:14:00,
2013-06-27 05:16:00,81.9,73.0,30.00,SSW,208,3.1,3.7,76,0.00,,,0.00,TxWx,2013-06-27 09:16:00,
2013-06-27 05:18:00,81.7,73.0,30.00,South,186,1.9,1.9,75,0.00,,,0.00,TxWx,2013-06-27 09:18:00,
2013-06-27 05:20:00,81.6,73.0,30.00,South,186,1.2,1.9,75,0.00,,,0.00,TxWx,2013-06-27 09:20:00,
2013-06-27 05:21:00,81.5,72.0,30.00,SSE,163,0.6,0.6,75,0.00,,,0.00,TxWx,2013-06-27 09:21:00,
2013-06-27 05:24:00,81.2,72.0,30.01,ESE,118,2.5,2.5,75,0.00,,,0.00,TxWx,2013-06-27 09:24:00,
2013-06-27 05:25:00,81.2,72.0,30.01,SSE,163,3.1,3.1,75,0.00,,,0.00,TxWx,2013-06-27 09:25:00,
2013-06-27 05:26:00,81.3,72.0,30.01,SSE,163,3.1,3.1,76,0.00,,,0.00,TxWx,2013-06-27 09:26:00,
2013-06-27 05:28:00,81.5,72.0,30.00,SE,141,3.7,4.3,76,0.00,,,0.00,TxWx,2013-06-27 09:28:00,
2013-06-27 05:29:00,81.6,74.0,30.00,South,186,3.1,3.1,76,0.00,,,0.00,TxWx,2013-06-27 09:29:00,
2013-06-27 05:30:00,81.6,74.0,30.00,SSE,163,2.5,2.5,76,0.00,,,0.00,TxWx,2013-06-27 09:30:00,
2013-06-27 05:34:00,81.6,73.0,30.00,SSW,208,0.6,0.6,76,0.00,,,0.00,TxWx,2013-06-27 09:34:00,
2013-06-27 05:35:00,81.6,73.0,30.00,SSW,208,0.0,0.6,76,0.00,,,0.00,TxWx,2013-06-27 09:35:00,
2013-06-27 05:36:00,81.5,73.0,30.00,SW,231,2.5,2.5,76,0.00,,,0.00,TxWx,2013-06-27 09:36:00,
2013-06-27 05:41:00,81.5,72.0,30.01,South,186,1.2,1.2,76,0.00,,,0.00,TxWx,2013-06-27 09:41:00,
2013-06-27 05:42:00,81.4,72.0,30.00,SSE,163,0.6,0.6,76,0.00,,,0.00,TxWx,2013-06-27 09:42:00,
2013-06-27 05:47:00,81.4,73.0,30.01,South,186,1.2,1.2,76,0.00,,,0.00,TxWx,2013-06-27 09:47:00,
2013-06-27 05:48:00,81.4,72.0,30.01,SSE,163,1.2,1.2,76,0.00,,,0.00,TxWx,2013-06-27 09:48:00,
2013-06-27 05:49:00,81.4,72.0,30.01,SSE,163,1.2,1.2,76,0.00,,,0.00,TxWx,2013-06-27 09:49:00,
2013-06-27 05:50:00,81.4,73.0,30.01,South,186,2.5,2.5,76,0.00,,,0.00,TxWx,2013-06-27 09:50:00,
2013-06-27 05:51:00,81.5,73.0,30.01,SSW,208,1.9,1.9,76,0.00,,,0.00,TxWx,2013-06-27 09:51:00,
2013-06-27 05:55:00,81.4,73.0,30.01,WSW,253,0.0,0.0,76,0.00,,,0.00,TxWx,2013-06-27 09:55:00,
2013-06-27 05:56:00,81.4,73.0,30.01,WSW,253,0.0,0.0,76,0.00,,,0.00,TxWx,2013-06-27 09:56:00,
2013-06-27 05:59:00,81.3,73.0,30.01,SW,231,2.5,2.5,76,0.00,,,0.00,TxWx,2013-06-27 09:59:00,
2013-06-27 06:01:00,81.2,73.0,30.01,WSW,253,2.5,2.5,77,0.00,,,0.00,TxWx,2013-06-27 10:01:00,
2013-06-27 06:05:00,81.3,73.0,30.01,WSW,253,1.2,1.9,77,0.00,,,0.00,TxWx,2013-06-27 10:05:00,
2013-06-27 06:06:00,81.4,73.0,30.01,WSW,253,1.9,1.9,77,0.00,,,0.00,TxWx,2013-06-27 10:06:00,
2013-06-27 06:07:00,81.4,73.0,30.01,WSW,253,2.5,2.5,78,0.00,,,0.00,TxWx,2013-06-27 10:07:00,
2013-06-27 06:08:00,81.4,73.0,30.01,WSW,253,1.9,2.5,78,0.00,,,0.00,TxWx,2013-06-27 10:08:00,
2013-06-27 06:12:00,81.3,73.0,30.01,WSW,253,0.6,1.2,78,0.00,,,0.00,TxWx,2013-06-27 10:12:00,
2013-06-27 06:15:00,81.1,73.0,30.01,West,276,2.5,3.1,78,0.00,,,0.00,TxWx,2013-06-27 10:15:00,
2013-06-27 06:16:00,81.0,73.0,30.02,West,276,2.5,3.1,78,0.00,,,0.00,TxWx,2013-06-27 10:16:00,
2013-06-27 06:18:00,81.0,74.0,30.02,West,276,2.5,2.5,79,0.00,,,0.00,TxWx,2013-06-27 10:18:00,
2013-06-27 06:20:00,80.8,74.0,30.02,West,276,3.1,3.1,79,0.00,,,0.00,TxWx,2013-06-27 10:20:00,
2013-06-27 06:22:00,80.8,74.0,30.02,West,276,2.5,2.5,79,0.00,,,0.00,TxWx,2013-06-27 10:22:00,
2013-06-27 06:23:00,80.8,74.0,30.02,WSW,253,2.5,2.5,79,0.00,,,0.00,TxWx,2013-06-27 10:23:00,
2013-06-27 06:29:00,80.5,73.0,30.02,WSW,253,1.9,1.9,79,0.00,,,0.00,TxWx,2013-06-27 10:29:00,
2013-06-27 06:32:00,80.5,73.0,30.02,WSW,253,1.9,1.9,80,0.00,,,0.00,TxWx,2013-06-27 10:32:00,
2013-06-27 06:34:00,80.5,74.0,30.02,WSW,253,2.5,2.5,80,0.00,,,0.00,TxWx,2013-06-27 10:34:00,
2013-06-27 06:35:00,80.5,74.0,30.02,WSW,253,2.5,2.5,80,0.00,,,0.00,TxWx,2013-06-27 10:35:00,
2013-06-27 06:38:00,80.6,74.0,30.02,WNW,298,3.1,3.1,80,0.00,,,0.00,TxWx,2013-06-27 10:38:00,
2013-06-27 06:41:00,80.6,74.0,30.02,WNW,298,2.5,2.5,80,0.00,,,0.00,TxWx,2013-06-27 10:41:00,
2013-06-27 06:43:00,80.5,73.0,30.02,West,276,1.9,1.9,80,0.00,,,0.00,TxWx,2013-06-27 10:43:00,
2013-06-27 06:45:00,80.6,74.0,30.02,West,276,0.6,1.2,80,0.00,,,0.00,TxWx,2013-06-27 10:45:00,
2013-06-27 06:46:00,80.6,74.0,30.02,West,276,0.6,1.2,80,0.00,,,0.00,TxWx,2013-06-27 10:46:00,
2013-06-27 06:49:00,80.6,74.0,30.02,West,276,0.6,0.6,80,0.00,,,0.00,TxWx,2013-06-27 10:49:00,
2013-06-27 06:51:00,80.6,74.0,30.02,West,276,1.9,1.9,80,0.00,,,0.00,TxWx,2013-06-27 10:51:00,
2013-06-27 06:52:00,80.5,73.0,30.02,WSW,253,1.9,1.9,80,0.00,,,0.00,TxWx,2013-06-27 10:52:00,
2013-06-27 06:53:00,80.4,73.0,30.02,West,276,2.5,2.5,80,0.00,,,0.00,TxWx,2013-06-27 10:53:00,
2013-06-27 06:56:00,80.5,74.0,30.02,WSW,253,3.1,3.1,81,0.00,,,0.00,TxWx,2013-06-27 10:56:00,
2013-06-27 06:57:00,80.5,74.0,30.02,WSW,253,2.5,2.5,81,0.00,,,0.00,TxWx,2013-06-27 10:57:00,
2013-06-27 06:59:00,80.6,74.0,30.02,WSW,253,1.9,2.5,81,0.00,,,0.00,TxWx,2013-06-27 10:59:00,
2013-06-27 07:00:00,80.6,74.0,30.02,SW,231,1.2,1.9,81,0.00,,,0.00,TxWx,2013-06-27 11:00:00,
2013-06-27 07:01:00,80.6,74.0,30.02,SW,231,1.2,1.2,81,0.00,,,0.00,TxWx,2013-06-27 11:01:00,
2013-06-27 07:02:00,80.6,74.0,30.02,SW,231,0.6,1.2,81,0.00,,,0.00,TxWx,2013-06-27 11:02:00,
2013-06-27 07:04:00,80.5,73.0,30.02,WSW,253,1.9,1.9,80,0.00,,,0.00,TxWx,2013-06-27 11:04:00,
2013-06-27 07:05:00,80.5,74.0,30.02,WSW,253,1.2,1.9,80,0.00,,,0.00,TxWx,2013-06-27 11:05:00,
2013-06-27 07:06:00,80.5,74.0,30.02,WSW,253,1.2,1.9,81,0.00,,,0.00,TxWx,2013-06-27 11:06:00,
2013-06-27 07:07:00,80.5,74.0,30.02,WSW,253,2.5,3.1,81,0.00,,,0.00,TxWx,2013-06-27 11:07:00,
2013-06-27 07:09:00,80.5,74.0,30.02,WSW,253,2.5,2.5,81,0.00,,,0.00,TxWx,2013-06-27 11:09:00,
2013-06-27 07:10:00,80.5,74.0,30.02,WSW,253,2.5,2.5,81,0.00,,,0.00,TxWx,2013-06-27 11:10:00,
2013-06-27 07:13:00,80.4,73.0,30.01,WSW,253,2.5,2.5,81,0.00,,,0.00,TxWx,2013-06-27 11:13:00,
2013-06-27 07:15:00,80.4,73.0,30.01,WSW,253,0.6,1.2,81,0.00,,,0.00,TxWx,2013-06-27 11:15:00,
2013-06-27 07:18:00,80.4,73.0,30.02,SW,231,1.9,1.9,81,0.00,,,0.00,TxWx,2013-06-27 11:18:00,
2013-06-27 07:19:00,80.4,73.0,30.02,SW,231,1.9,1.9,81,0.00,,,0.00,TxWx,2013-06-27 11:19:00,
2013-06-27 07:21:00,80.4,73.0,30.01,SW,231,1.2,1.2,81,0.00,,,0.00,TxWx,2013-06-27 11:21:00,
2013-06-27 07:23:00,80.5,74.0,30.02,SW,231,1.2,1.2,81,0.00,,,0.00,TxWx,2013-06-27 11:23:00,
2013-06-27 07:24:00,80.5,73.0,30.02,WSW,253,1.2,1.2,81,0.00,,,0.00,TxWx,2013-06-27 11:24:00,
2013-06-27 07:25:00,80.4,73.0,30.02,WSW,253,1.2,1.9,81,0.00,,,0.00,TxWx,2013-06-27 11:25:00,
2013-06-27 07:26:00,80.4,73.0,30.02,WNW,298,1.9,1.9,81,0.00,,,0.00,TxWx,2013-06-27 11:26:00,
2013-06-27 07:28:00,80.3,73.0,30.02,West,276,1.9,1.9,81,0.00,,,0.00,TxWx,2013-06-27 11:28:00,
2013-06-27 07:30:00,80.3,73.0,30.02,WNW,298,1.9,2.5,81,0.00,,,0.00,TxWx,2013-06-27 11:30:00,
2013-06-27 07:31:00,80.2,73.0,30.02,NNW,343,2.5,2.5,81,0.00,,,0.00,TxWx,2013-06-27 11:31:00,
2013-06-27 07:32:00,80.2,73.0,30.02,NNW,343,2.5,2.5,81,0.00,,,0.00,TxWx,2013-06-27 11:32:00,
2013-06-27 07:34:00,80.4,73.0,30.02,West,276,0.6,0.6,81,0.00,,,0.00,TxWx,2013-06-27 11:34:00,
2013-06-27 07:35:00,80.4,73.0,30.02,West,276,0.6,1.2,81,0.00,,,0.00,TxWx,2013-06-27 11:35:00,
2013-06-27 07:38:00,80.5,73.0,30.02,West,276,0.6,0.6,81,0.00,,,0.00,TxWx,2013-06-27 11:38:00,
2013-06-27 07:39:00,80.5,73.0,30.02,West,276,1.2,1.2,81,0.00,,,0.00,TxWx,2013-06-27 11:39:00,
2013-06-27 07:40:00,80.5,73.0,30.02,West,276,0.0,0.0,81,0.00,,,0.00,TxWx,2013-06-27 11:40:00,
2013-06-27 07:42:00,80.5,73.0,30.02,West,276,0.0,0.0,81,0.00,,,0.00,TxWx,2013-06-27 11:42:00,
2013-06-27 07:44:00,80.4,73.0,30.03,SW,231,0.0,0.0,81,0.00,,,0.00,TxWx,2013-06-27 11:44:00,
2013-06-27 07:45:00,80.4,73.0,30.03,SW,231,0.0,0.0,81,0.00,,,0.00,TxWx,2013-06-27 11:45:00,
2013-06-27 07:46:00,80.5,73.0,30.03,SW,231,0.0,0.0,81,0.00,,,0.00,TxWx,2013-06-27 11:46:00,
2013-06-27 07:47:00,80.5,73.0,30.03,SW,231,0.0,0.0,81,0.00,,,0.00,TxWx,2013-06-27 11:47:00,
2013-06-27 07:49:00,80.4,73.0,30.03,SW,231,0.0,0.0,80,0.00,,,0.00,TxWx,2013-06-27 11:49:00,
2013-06-27 07:50:00,80.4,73.0,30.03,SW,231,0.0,0.0,80,0.00,,,0.00,TxWx,2013-06-27 11:50:00,
2013-06-27 07:51:00,80.4,73.0,30.03,SW,231,0.0,0.0,80,0.00,,,0.00,TxWx,2013-06-27 11:51:00,
2013-06-27 07:52:00,80.4,73.0,30.03,SW,231,0.0,0.0,80,0.00,,,0.00,TxWx,2013-06-27 11:52:00,
2013-06-27 07:56:00,80.3,73.0,30.03,South,186,0.6,1.2,80,0.00,,,0.00,TxWx,2013-06-27 11:56:00,
2013-06-27 07:57:00,80.3,73.0,30.03,South,186,0.6,1.2,80,0.00,,,0.00,TxWx,2013-06-27 11:57:00,
2013-06-27 07:58:00,80.4,73.0,30.03,South,186,0.6,1.2,80,0.00,,,0.00,TxWx,2013-06-27 11:58:00,
2013-06-27 07:59:00,80.5,74.0,30.03,South,186,0.6,1.2,81,0.00,,,0.00,TxWx,2013-06-27 11:59:00,
2013-06-27 08:02:00,80.7,74.0,30.03,SSE,163,1.2,1.2,81,0.00,,,0.00,TxWx,2013-06-27 12:02:00,
2013-06-27 08:05:00,80.9,74.0,30.03,SSE,163,0.0,0.0,81,0.00,,,0.00,TxWx,2013-06-27 12:05:00,
2013-06-27 08:06:00,81.0,74.0,30.03,SSE,163,0.0,0.0,81,0.00,,,0.00,TxWx,2013-06-27 12:06:00,
2013-06-27 08:07:00,81.2,74.0,30.03,SSE,163,0.0,0.0,81,0.00,,,0.00,TxWx,2013-06-27 12:07:00,
2013-06-27 08:08:00,81.3,74.0,30.03,SSE,163,0.0,0.0,81,0.00,,,0.00,TxWx,2013-06-27 12:08:00,
2013-06-27 08:11:00,81.5,74.0,30.03,SSE,163,1.2,1.2,81,0.00,,,0.00,TxWx,2013-06-27 12:11:00,
2013-06-27 08:13:00,81.9,75.0,30.04,SE,141,1.9,1.9,81,0.00,,,0.00,TxWx,2013-06-27 12:13:00,
2013-06-27 08:14:00,81.8,75.0,30.04,SE,141,1.2,1.2,81,0.00,,,0.00,TxWx,2013-06-27 12:14:00,
2013-06-27 08:17:00,82.1,75.0,30.04,SSE,163,0.6,1.2,80,0.00,,,0.00,TxWx,2013-06-27 12:17:00,
2013-06-27 08:18:00,82.3,75.0,30.04,SE,141,1.2,1.9,80,0.00,,,0.00,TxWx,2013-06-27 12:18:00,
2013-06-27 08:19:00,82.3,75.0,30.04,East,96,1.2,1.2,80,0.00,,,0.00,TxWx,2013-06-27 12:19:00,
2013-06-27 08:20:00,82.5,75.0,30.04,ESE,118,1.9,1.9,80,0.00,,,0.00,TxWx,2013-06-27 12:20:00,
2013-06-27 08:25:00,82.6,76.0,30.04,ESE,118,1.2,1.2,80,0.00,,,0.00,TxWx,2013-06-27 12:25:00,
2013-06-27 08:26:00,82.4,75.0,30.04,SE,141,1.2,1.9,79,0.00,,,0.00,TxWx,2013-06-27 12:26:00,
2013-06-27 08:27:00,83.0,76.0,30.05,ESE,118,1.2,1.2,80,0.00,,,0.00,TxWx,2013-06-27 12:27:00,
2013-06-27 08:31:00,82.7,76.0,30.05,SE,141,1.9,2.5,79,0.00,,,0.00,TxWx,2013-06-27 12:31:00,
2013-06-27 08:32:00,82.6,75.0,30.05,SE,141,1.9,1.9,78,0.00,,,0.00,TxWx,2013-06-27 12:32:00,
2013-06-27 08:33:00,82.9,75.0,30.05,SE,141,1.9,1.9,78,0.00,,,0.00,TxWx,2013-06-27 12:33:00,
2013-06-27 08:34:00,82.6,75.0,30.05,ESE,118,1.9,1.9,78,0.00,,,0.00,TxWx,2013-06-27 12:34:00,
2013-06-27 08:35:00,82.8,75.0,30.05,SE,141,1.2,1.2,78,0.00,,,0.00,TxWx,2013-06-27 12:35:00,
2013-06-27 08:36:00,83.2,75.0,30.05,SE,141,1.2,1.2,78,0.00,,,0.00,TxWx,2013-06-27 12:36:00,
2013-06-27 08:39:00,82.9,75.0,30.05,SSE,163,1.9,1.9,77,0.00,,,0.00,TxWx,2013-06-27 12:39:00,
2013-06-27 08:40:00,83.0,75.0,30.05,SSE,163,1.2,1.9,77,0.00,,,0.00,TxWx,2013-06-27 12:40:00,
2013-06-27 08:41:00,83.1,75.0,30.05,South,186,2.5,2.5,77,0.00,,,0.00,TxWx,2013-06-27 12:41:00,
2013-06-27 08:45:00,82.6,75.0,30.05,SSE,163,3.1,3.1,76,0.00,,,0.00,TxWx,2013-06-27 12:45:00,
2013-06-27 08:47:00,82.7,75.0,30.05,SSE,163,3.7,3.7,76,0.00,,,0.00,TxWx,2013-06-27 12:47:00,
2013-06-27 08:49:00,82.8,74.0,30.06,SE,141,3.1,3.1,76,0.00,,,0.00,TxWx,2013-06-27 12:49:00,
2013-06-27 08:51:00,83.0,75.0,30.05,SE,141,3.1,3.1,76,0.00,,,0.00,TxWx,2013-06-27 12:51:00,
2013-06-27 08:52:00,82.7,74.0,30.05,SE,141,3.1,3.1,76,0.00,,,0.00,TxWx,2013-06-27 12:52:00,
2013-06-27 08:53:00,82.9,74.0,30.05,SSE,163,2.5,2.5,76,0.00,,,0.00,TxWx,2013-06-27 12:53:00,
2013-06-27 08:57:00,83.2,74.0,30.05,SSE,163,2.5,2.5,75,0.00,,,0.00,TxWx,2013-06-27 12:57:00,
2013-06-27 08:58:00,83.2,74.0,30.06,SSE,163,1.9,2.5,75,0.00,,,0.00,TxWx,2013-06-27 12:58:00,
2013-06-27 08:59:00,83.3,74.0,30.06,SSE,163,3.1,3.7,75,0.00,,,0.00,TxWx,2013-06-27 12:59:00,
2013-06-27 09:02:00,83.3,74.0,30.05,SE,141,1.9,1.9,74,0.00,,,0.00,TxWx,2013-06-27 13:02:00,
2013-06-27 09:04:00,83.8,75.0,30.05,SE,141,3.1,3.1,74,0.00,,,0.00,TxWx,2013-06-27 13:04:00,
2013-06-27 09:06:00,83.5,74.0,30.05,SE,141,1.9,1.9,73,0.00,,,0.00,TxWx,2013-06-27 13:06:00,
2013-06-27 09:07:00,83.7,74.0,30.05,East,96,2.5,2.5,73,0.00,,,0.00,TxWx,2013-06-27 13:07:00,
2013-06-27 09:08:00,83.8,74.0,30.05,ESE,118,1.9,2.5,73,0.00,,,0.00,TxWx,2013-06-27 13:08:00,
2013-06-27 09:11:00,84.0,74.0,30.05,SE,141,2.5,2.5,73,0.00,,,0.00,TxWx,2013-06-27 13:11:00,
2013-06-27 09:12:00,84.0,74.0,30.05,SE,141,2.5,2.5,73,0.00,,,0.00,TxWx,2013-06-27 13:12:00,
2013-06-27 09:13:00,83.9,74.0,30.05,SSE,163,4.3,4.3,73,0.00,,,0.00,TxWx,2013-06-27 13:13:00,
2013-06-27 09:14:00,83.5,74.0,30.05,SE,141,5.0,5.0,72,0.00,,,0.00,TxWx,2013-06-27 13:14:00,
2013-06-27 09:17:00,83.9,74.0,30.05,SE,141,4.3,5.0,73,0.00,,,0.00,TxWx,2013-06-27 13:17:00,
2013-06-27 09:18:00,83.5,74.0,30.05,ESE,118,3.1,3.7,72,0.00,,,0.00,TxWx,2013-06-27 13:18:00,
2013-06-27 09:21:00,83.6,74.0,30.05,ESE,118,3.1,3.7,73,0.00,,,0.00,TxWx,2013-06-27 13:21:00,
2013-06-27 09:22:00,83.7,74.0,30.05,SE,141,3.7,3.7,73,0.00,,,0.00,TxWx,2013-06-27 13:22:00,
2013-06-27 09:23:00,83.7,74.0,30.05,SE,141,4.3,4.3,73,0.00,,,0.00,TxWx,2013-06-27 13:23:00,
2013-06-27 09:24:00,84.0,74.0,30.05,ESE,118,4.3,4.3,73,0.00,,,0.00,TxWx,2013-06-27 13:24:00,
2013-06-27 09:27:00,83.8,74.0,30.05,SE,141,2.5,3.1,73,0.00,,,0.00,TxWx,2013-06-27 13:27:00,
2013-06-27 09:28:00,83.7,74.0,30.05,SE,141,3.1,3.1,73,0.00,,,0.00,TxWx,2013-06-27 13:28:00,
2013-06-27 09:32:00,83.5,74.0,30.05,SE,141,4.3,4.3,73,0.00,,,0.00,TxWx,2013-06-27 13:32:00,
2013-06-27 09:33:00,83.5,73.0,30.05,SE,141,3.1,3.1,73,0.00,,,0.00,TxWx,2013-06-27 13:33:00,
2013-06-27 09:34:00,83.8,74.0,30.05,SE,141,3.7,3.7,73,0.00,,,0.00,TxWx,2013-06-27 13:34:00,
2013-06-27 09:35:00,83.9,74.0,30.05,ESE,118,3.7,3.7,73,0.00,,,0.00,TxWx,2013-06-27 13:35:00,
2013-06-27 09:38:00,83.5,74.0,30.05,SE,141,2.5,3.1,73,0.00,,,0.00,TxWx,2013-06-27 13:38:00,
2013-06-27 09:39:00,83.4,73.0,30.05,ESE,118,3.1,3.7,73,0.00,,,0.00,TxWx,2013-06-27 13:39:00,
2013-06-27 09:40:00,83.8,74.0,30.05,SE,141,3.1,3.1,73,0.00,,,0.00,TxWx,2013-06-27 13:40:00,
2013-06-27 09:41:00,83.9,74.0,30.05,ESE,118,2.5,3.1,73,0.00,,,0.00,TxWx,2013-06-27 13:41:00,
2013-06-27 09:44:00,83.4,73.0,30.05,ESE,118,3.7,4.3,73,0.00,,,0.00,TxWx,2013-06-27 13:44:00,
2013-06-27 09:45:00,83.6,74.0,30.05,East,96,3.1,4.3,73,0.00,,,0.00,TxWx,2013-06-27 13:45:00,
2013-06-27 09:46:00,83.5,74.0,30.05,ESE,118,3.1,3.7,73,0.00,,,0.00,TxWx,2013-06-27 13:46:00,
2013-06-27 09:47:00,83.4,73.0,30.04,ESE,118,3.1,3.7,73,0.00,,,0.00,TxWx,2013-06-27 13:47:00,
2013-06-27 09:51:00,83.5,73.0,30.04,SE,141,4.3,4.3,73,0.00,,,0.00,TxWx,2013-06-27 13:51:00,
2013-06-27 09:52:00,83.3,73.0,30.04,ESE,118,3.7,3.7,73,0.00,,,0.00,TxWx,2013-06-27 13:52:00,
2013-06-27 09:54:00,83.6,75.0,30.04,East,96,2.5,3.1,74,0.00,,,0.00,TxWx,2013-06-27 13:54:00,
2013-06-27 09:57:00,83.5,73.0,30.05,ESE,118,5.0,5.0,73,0.00,,,0.00,TxWx,2013-06-27 13:57:00,
2013-06-27 09:58:00,83.3,73.0,30.05,ESE,118,4.3,4.3,73,0.00,,,0.00,TxWx,2013-06-27 13:58:00,
2013-06-27 09:59:00,83.4,73.0,30.05,East,96,5.6,5.6,73,0.00,,,0.00,TxWx,2013-06-27 13:59:00,
2013-06-27 10:01:00,83.4,73.0,30.05,East,96,4.3,5.0,73,0.00,,,0.00,TxWx,2013-06-27 14:01:00,
2013-06-27 10:02:00,83.6,74.0,30.05,East,96,5.0,6.2,73,0.00,,,0.00,TxWx,2013-06-27 14:02:00,
2013-06-27 10:03:00,83.6,74.0,30.05,East,96,5.0,5.0,73,0.00,,,0.00,TxWx,2013-06-27 14:03:00,
2013-06-27 10:04:00,83.4,73.0,30.05,East,96,4.3,5.6,73,0.00,,,0.00,TxWx,2013-06-27 14:04:00,
2013-06-27 10:08:00,83.6,74.0,30.05,ESE,118,5.0,5.0,73,0.00,,,0.00,TxWx,2013-06-27 14:08:00,
2013-06-27 10:09:00,84.2,75.0,30.05,ESE,118,4.3,5.0,74,0.00,,,0.00,TxWx,2013-06-27 14:09:00,
2013-06-27 10:10:00,84.1,75.0,30.05,East,96,4.3,4.3,74,0.00,,,0.00,TxWx,2013-06-27 14:10:00,
2013-06-27 10:13:00,83.8,74.0,30.05,East,96,3.1,3.1,73,0.00,,,0.00,TxWx,2013-06-27 14:13:00,
2013-06-27 10:14:00,84.2,74.0,30.05,ESE,118,3.7,3.7,73,0.00,,,0.00,TxWx,2013-06-27 14:14:00,
2013-06-27 10:15:00,84.4,74.0,30.05,East,96,3.7,3.7,73,0.00,,,0.00,TxWx,2013-06-27 14:15:00,
2013-06-27 10:18:00,84.9,75.0,30.05,NE,51,2.5,2.5,73,0.00,,,0.00,TxWx,2013-06-27 14:18:00,
2013-06-27 10:19:00,84.7,75.0,30.05,NNE,28,1.9,1.9,73,0.00,,,0.00,TxWx,2013-06-27 14:19:00,
2013-06-27 10:20:00,85.0,75.0,30.05,NNW,343,1.9,1.9,73,0.00,,,0.00,TxWx,2013-06-27 14:20:00,
2013-06-27 10:21:00,84.5,74.0,30.05,NNW,343,3.7,4.3,72,0.00,,,0.00,TxWx,2013-06-27 14:21:00,
2013-06-27 10:26:00,82.0,71.0,30.05,North,6,5.0,6.8,70,0.00,,,0.00,TxWx,2013-06-27 14:26:00,
2013-06-27 10:27:00,82.2,72.0,30.05,West,276,1.2,1.2,71,0.00,,,0.00,TxWx,2013-06-27 14:27:00,
2013-06-27 10:28:00,82.1,72.0,30.06,NW,321,3.7,4.3,72,0.00,,,0.00,TxWx,2013-06-27 14:28:00,
2013-06-27 10:29:00,82.0,72.0,30.05,WNW,298,3.1,3.7,72,0.00,,,0.00,TxWx,2013-06-27 14:29:00,
2013-06-27 10:31:00,81.2,71.0,30.06,WNW,298,5.6,5.6,72,0.00,,,0.00,TxWx,2013-06-27 14:31:00,
2013-06-27 10:32:00,81.2,71.0,30.06,NW,321,6.8,6.8,73,0.00,,,0.00,TxWx,2013-06-27 14:32:00,
2013-06-27 10:34:00,80.7,72.0,30.06,WNW,298,4.3,4.3,74,0.00,,,0.00,TxWx,2013-06-27 14:34:00,
2013-06-27 10:35:00,80.6,72.0,30.06,North,6,4.3,4.3,74,0.00,,,0.00,TxWx,2013-06-27 14:35:00,
2013-06-27 10:36:00,80.1,70.0,30.06,West,276,5.0,5.6,73,0.00,,,0.00,TxWx,2013-06-27 14:36:00,
2013-06-27 10:38:00,80.5,71.0,30.06,West,276,5.6,6.2,75,0.00,,,0.00,TxWx,2013-06-27 14:38:00,
2013-06-27 10:41:00,79.7,71.0,30.06,WNW,298,2.5,3.1,74,0.00,,,0.00,TxWx,2013-06-27 14:41:00,
2013-06-27 10:43:00,78.6,69.0,30.06,NNW,343,3.1,3.1,71,0.00,,,0.00,TxWx,2013-06-27 14:43:00,
2013-06-27 10:44:00,78.6,69.0,30.06,WNW,298,1.2,1.9,71,0.00,,,0.00,TxWx,2013-06-27 14:44:00,
2013-06-27 10:45:00,78.8,69.0,30.06,NW,321,3.1,3.1,72,0.00,,,0.00,TxWx,2013-06-27 14:45:00,
2013-06-27 10:47:00,79.1,69.0,30.06,NW,321,1.2,1.9,73,0.00,,,0.00,TxWx,2013-06-27 14:47:00,
2013-06-27 10:50:00,79.0,70.0,30.06,West,276,1.9,2.5,73,0.00,,,0.00,TxWx,2013-06-27 14:50:00,
2013-06-27 10:51:00,79.2,70.0,30.06,WNW,298,3.1,3.7,74,0.00,,,0.00,TxWx,2013-06-27 14:51:00,
2013-06-27 10:52:00,79.1,70.0,30.06,West,276,2.5,3.1,74,0.00,,,0.00,TxWx,2013-06-27 14:52:00,
2013-06-27 10:55:00,78.7,70.0,30.06,NNW,343,3.7,3.7,74,0.00,,,0.04,TxWx,2013-06-27 14:55:00,
2013-06-27 10:56:00,78.8,70.0,30.06,WNW,298,1.9,2.5,75,0.00,,,0.05,TxWx,2013-06-27 14:56:00,
2013-06-27 10:57:00,79.0,71.0,30.06,WSW,253,1.9,2.5,76,0.00,,,0.06,TxWx,2013-06-27 14:57:00,
2013-06-27 10:59:00,78.1,70.0,30.06,NNW,343,3.7,3.7,76,0.00,,,0.08,TxWx,2013-06-27 14:59:00,
2013-06-27 11:01:00,77.9,70.0,30.06,WNW,298,3.7,3.7,77,0.00,,,0.09,TxWx,2013-06-27 15:01:00,
2013-06-27 11:02:00,78.0,71.0,30.06,WNW,298,3.7,3.7,78,0.54,,,0.09,TxWx,2013-06-27 15:02:00,
2013-06-27 11:03:00,78.0,71.0,30.06,WNW,298,1.9,2.5,79,0.54,,,0.10,TxWx,2013-06-27 15:03:00,
2013-06-27 11:05:00,77.8,71.0,30.06,West,276,6.8,6.8,80,0.54,,,0.11,TxWx,2013-06-27 15:05:00,
2013-06-27 11:07:00,77.8,71.0,30.06,West,276,3.1,4.3,80,0.54,,,0.11,TxWx,2013-06-27 15:07:00,
2013-06-27 11:08:00,77.8,72.0,30.06,West,276,4.3,5.0,81,0.54,,,0.12,TxWx,2013-06-27 15:08:00,
2013-06-27 11:09:00,77.7,71.0,30.06,WNW,298,3.7,3.7,81,0.54,,,0.12,TxWx,2013-06-27 15:09:00,
2013-06-27 11:13:00,77.9,72.0,30.06,West,276,3.7,3.7,82,0.18,,,0.13,TxWx,2013-06-27 15:13:00,
2013-06-27 11:15:00,77.5,72.0,30.06,WSW,253,3.1,3.7,82,0.18,,,0.13,TxWx,2013-06-27 15:15:00,
2013-06-27 11:17:00,77.2,71.0,30.06,WSW,253,3.1,3.7,82,0.18,,,0.13,TxWx,2013-06-27 15:17:00,
2013-06-27 11:18:00,77.4,71.0,30.06,WSW,253,3.1,3.1,82,0.18,,,0.13,TxWx,2013-06-27 15:18:00,
2013-06-27 11:19:00,77.5,72.0,30.06,WSW,253,1.9,1.9,82,0.18,,,0.13,TxWx,2013-06-27 15:19:00,
2013-06-27 11:20:00,77.7,72.0,30.06,West,276,1.9,1.9,83,0.18,,,0.13,TxWx,2013-06-27 15:20:00,
2013-06-27 11:23:00,77.9,72.0,30.06,WNW,298,2.5,2.5,83,0.06,,,0.13,TxWx,2013-06-27 15:23:00,
2013-06-27 11:25:00,77.9,72.0,30.06,WSW,253,2.5,2.5,83,0.06,,,0.13,TxWx,2013-06-27 15:25:00,
2013-06-27 11:26:00,77.8,72.0,30.06,SW,231,3.7,3.7,82,0.06,,,0.13,TxWx,2013-06-27 15:26:00,
2013-06-27 11:28:00,78.0,72.0,30.06,WSW,253,1.9,1.9,83,0.06,,,0.13,TxWx,2013-06-27 15:28:00,
2013-06-27 11:29:00,78.1,72.0,30.06,WSW,253,0.6,1.2,83,0.06,,,0.13,TxWx,2013-06-27 15:29:00,
2013-06-27 11:31:00,78.1,72.0,30.06,WSW,253,0.6,0.6,83,0.06,,,0.13,TxWx,2013-06-27 15:31:00,
2013-06-27 11:33:00,78.1,72.0,30.06,WSW,253,1.2,1.9,83,0.00,,,0.13,TxWx,2013-06-27 15:33:00,
2013-06-27 11:34:00,78.2,72.0,30.06,West,276,1.9,1.9,83,0.00,,,0.13,TxWx,2013-06-27 15:34:00,
2013-06-27 11:35:00,78.4,72.0,30.06,WSW,253,1.2,1.2,83,0.00,,,0.13,TxWx,2013-06-27 15:35:00,
2013-06-27 11:37:00,78.0,72.0,30.06,WSW,253,2.5,3.1,83,0.00,,,0.13,TxWx,2013-06-27 15:37:00,
2013-06-27 11:39:00,77.4,71.0,30.06,SW,231,0.6,1.2,82,0.00,,,0.13,TxWx,2013-06-27 15:39:00,
2013-06-27 11:40:00,77.0,71.0,30.06,WSW,253,3.1,3.1,81,0.00,,,0.13,TxWx,2013-06-27 15:40:00,
2013-06-27 11:41:00,76.7,71.0,30.07,WSW,253,3.7,3.7,81,0.00,,,0.13,TxWx,2013-06-27 15:41:00,
2013-06-27 11:42:00,76.6,71.0,30.07,WSW,253,3.7,3.7,81,0.00,,,0.13,TxWx,2013-06-27 15:42:00,
2013-06-27 11:44:00,76.7,71.0,30.07,WSW,253,5.6,5.6,81,0.00,,,0.13,TxWx,2013-06-27 15:44:00,
2013-06-27 11:45:00,76.8,71.0,30.07,West,276,3.7,4.3,81,0.00,,,0.13,TxWx,2013-06-27 15:45:00,
2013-06-27 11:46:00,76.9,71.0,30.07,West,276,5.6,6.2,81,0.00,,,0.13,TxWx,2013-06-27 15:46:00,
2013-06-27 11:49:00,77.1,70.0,30.07,WNW,298,3.1,3.7,80,0.00,,,0.13,TxWx,2013-06-27 15:49:00,
2013-06-27 11:50:00,77.2,70.0,30.07,West,276,3.7,4.3,80,0.00,,,0.13,TxWx,2013-06-27 15:50:00,
2013-06-27 11:52:00,77.4,70.0,30.07,WNW,298,3.1,3.1,80,0.00,,,0.13,TxWx,2013-06-27 15:52:00,
2013-06-27 11:53:00,77.2,70.0,30.07,WNW,298,1.9,2.5,79,0.00,,,0.13,TxWx,2013-06-27 15:53:00,
2013-06-27 11:55:00,77.6,71.0,30.06,West,276,1.2,1.9,79,0.00,,,0.13,TxWx,2013-06-27 15:55:00,
2013-06-27 11:56:00,77.5,71.0,30.06,West,276,3.7,3.7,79,0.00,,,0.13,TxWx,2013-06-27 15:56:00,
2013-06-27 11:58:00,77.7,71.0,30.06,WSW,253,6.2,6.2,80,0.00,,,0.13,TxWx,2013-06-27 15:58:00,
2013-06-27 12:00:00,77.5,70.0,30.06,West,276,4.3,4.3,79,0.00,,,0.13,TxWx,2013-06-27 16:00:00,
2013-06-27 12:01:00,77.6,71.0,30.06,WSW,253,3.1,3.1,79,0.00,,,0.13,TxWx,2013-06-27 16:01:00,
2013-06-27 12:03:00,77.5,71.0,30.06,WSW,253,2.5,3.1,79,0.00,,,0.13,TxWx,2013-06-27 16:03:00,
2013-06-27 12:05:00,77.8,71.0,30.05,West,276,0.0,0.6,80,0.00,,,0.13,TxWx,2013-06-27 16:05:00,
2013-06-27 12:07:00,78.0,71.0,30.05,WSW,253,0.0,0.0,80,0.00,,,0.13,TxWx,2013-06-27 16:07:00,
2013-06-27 12:08:00,78.1,71.0,30.05,WSW,253,0.0,0.0,80,0.00,,,0.13,TxWx,2013-06-27 16:08:00,
2013-06-27 12:09:00,78.2,71.0,30.05,WSW,253,0.0,0.0,80,0.00,,,0.13,TxWx,2013-06-27 16:09:00,
2013-06-27 12:10:00,78.1,71.0,30.05,WSW,253,0.6,1.2,80,0.00,,,0.13,TxWx,2013-06-27 16:10:00,
2013-06-27 12:11:00,78.0,71.0,30.05,WSW,253,0.6,0.6,80,0.00,,,0.13,TxWx,2013-06-27 16:11:00,
2013-06-27 12:14:00,78.0,71.0,30.05,WSW,253,1.2,1.2,80,0.00,,,0.13,TxWx,2013-06-27 16:14:00,
2013-06-27 12:16:00,78.3,71.0,30.05,West,276,0.6,0.6,80,0.00,,,0.13,TxWx,2013-06-27 16:16:00,
2013-06-27 12:17:00,78.2,71.0,30.05,WSW,253,1.2,1.2,80,0.00,,,0.13,TxWx,2013-06-27 16:17:00,
2013-06-27 12:19:00,78.3,71.0,30.05,West,276,1.2,1.9,80,0.00,,,0.13,TxWx,2013-06-27 16:19:00,
2013-06-27 12:20:00,78.3,71.0,30.05,West,276,1.9,1.9,80,0.00,,,0.13,TxWx,2013-06-27 16:20:00,
2013-06-27 12:21:00,78.4,71.0,30.05,WNW,298,1.9,1.9,80,0.00,,,0.13,TxWx,2013-06-27 16:21:00,
2013-06-27 12:23:00,78.3,71.0,30.06,West,276,3.1,3.1,80,0.00,,,0.13,TxWx,2013-06-27 16:23:00,
2013-06-27 12:24:00,78.4,71.0,30.05,West,276,1.9,2.5,80,0.00,,,0.13,TxWx,2013-06-27 16:24:00,
2013-06-27 12:26:00,78.2,71.0,30.05,West,276,3.1,3.1,80,0.00,,,0.13,TxWx,2013-06-27 16:26:00,
2013-06-27 12:27:00,78.3,71.0,30.05,WSW,253,3.1,3.1,80,0.00,,,0.13,TxWx,2013-06-27 16:27:00,
2013-06-27 12:29:00,78.7,72.0,30.05,WSW,253,1.9,1.9,81,0.00,,,0.13,TxWx,2013-06-27 16:29:00,
2013-06-27 12:31:00,78.8,72.0,30.06,WSW,253,1.9,2.5,81,0.00,,,0.13,TxWx,2013-06-27 16:31:00,
2013-06-27 12:32:00,78.9,73.0,30.06,WSW,253,2.5,3.1,81,0.00,,,0.13,TxWx,2013-06-27 16:32:00,
2013-06-27 12:36:00,78.9,72.0,30.05,West,276,1.9,1.9,81,0.00,,,0.13,TxWx,2013-06-27 16:36:00,
2013-06-27 12:37:00,79.0,73.0,30.05,West,276,1.2,1.2,81,0.00,,,0.13,TxWx,2013-06-27 16:37:00,
2013-06-27 12:38:00,79.0,73.0,30.05,West,276,1.2,1.2,81,0.00,,,0.13,TxWx,2013-06-27 16:38:00,
2013-06-27 12:39:00,78.9,72.0,30.05,West,276,0.6,0.6,81,0.00,,,0.13,TxWx,2013-06-27 16:39:00,
2013-06-27 12:40:00,78.8,72.0,30.05,West,276,1.2,1.2,81,0.00,,,0.13,TxWx,2013-06-27 16:40:00,
2013-06-27 12:42:00,78.6,72.0,30.04,West,276,1.9,1.9,81,0.00,,,0.13,TxWx,2013-06-27 16:42:00,
2013-06-27 12:44:00,78.7,72.0,30.04,West,276,1.9,1.9,81,0.00,,,0.13,TxWx,2013-06-27 16:44:00,
2013-06-27 12:45:00,78.7,72.0,30.05,West,276,1.2,1.9,81,0.00,,,0.13,TxWx,2013-06-27 16:45:00,
2013-06-27 12:46:00,78.7,72.0,30.04,West,276,1.2,1.9,81,0.00,,,0.13,TxWx,2013-06-27 16:46:00,
2013-06-27 12:49:00,78.7,72.0,30.04,WNW,298,1.9,1.9,81,0.00,,,0.13,TxWx,2013-06-27 16:49:00,
2013-06-27 12:50:00,78.7,72.0,30.04,WNW,298,1.9,1.9,81,0.00,,,0.13,TxWx,2013-06-27 16:50:00,
2013-06-27 12:51:00,78.8,73.0,30.04,WNW,298,2.5,2.5,81,0.00,,,0.13,TxWx,2013-06-27 16:51:00,
2013-06-27 12:52:00,78.8,73.0,30.04,WNW,298,1.2,1.9,81,0.00,,,0.13,TxWx,2013-06-27 16:52:00,
2013-06-27 12:56:00,78.8,73.0,30.04,West,276,0.6,1.2,81,0.00,,,0.13,TxWx,2013-06-27 16:56:00,
2013-06-27 12:57:00,78.8,73.0,30.04,West,276,1.9,2.5,81,0.00,,,0.13,TxWx,2013-06-27 16:57:00,
2013-06-27 12:58:00,78.7,72.0,30.04,West,276,1.9,1.9,81,0.00,,,0.13,TxWx,2013-06-27 16:58:00,
2013-06-27 12:59:00,78.8,72.0,30.04,West,276,1.2,1.9,81,0.00,,,0.13,TxWx,2013-06-27 16:59:00,
2013-06-27 13:01:00,78.8,73.0,30.03,West,276,0.6,1.2,81,0.00,,,0.13,TxWx,2013-06-27 17:01:00,
2013-06-27 13:02:00,78.9,73.0,30.03,West,276,1.2,1.9,81,0.00,,,0.13,TxWx,2013-06-27 17:02:00,
2013-06-27 13:03:00,78.7,72.0,30.03,West,276,1.9,1.9,81,0.00,,,0.13,TxWx,2013-06-27 17:03:00,
2013-06-27 13:04:00,78.8,73.0,30.03,West,276,1.2,1.2,81,0.00,,,0.13,TxWx,2013-06-27 17:04:00,
2013-06-27 13:08:00,79.1,73.0,30.03,SW,231,0.0,0.0,81,0.00,,,0.14,TxWx,2013-06-27 17:08:00,
2013-06-27 13:09:00,79.2,73.0,30.03,East,96,0.0,0.6,81,0.00,,,0.14,TxWx,2013-06-27 17:09:00,
2013-06-27 13:10:00,79.3,73.0,30.03,East,96,1.2,1.2,81,0.00,,,0.14,TxWx,2013-06-27 17:10:00,
2013-06-27 13:13:00,79.7,74.0,30.02,ENE,73,0.6,0.6,81,0.06,,,0.14,TxWx,2013-06-27 17:13:00,
2013-06-27 13:15:00,79.3,72.0,30.03,ENE,73,1.2,1.2,81,0.06,,,0.14,TxWx,2013-06-27 17:15:00,
2013-06-27 13:16:00,79.2,72.0,30.02,ENE,73,1.2,1.9,81,0.06,,,0.14,TxWx,2013-06-27 17:16:00,
2013-06-27 13:17:00,79.6,74.0,30.02,ENE,73,1.9,1.9,81,0.06,,,0.14,TxWx,2013-06-27 17:17:00,
2013-06-27 13:20:00,79.6,73.0,30.02,East,96,1.9,1.9,81,0.06,,,0.14,TxWx,2013-06-27 17:20:00,
2013-06-27 13:21:00,79.6,73.0,30.02,ENE,73,1.2,1.9,81,0.06,,,0.14,TxWx,2013-06-27 17:21:00,
2013-06-27 13:23:00,79.9,74.0,30.02,ENE,73,1.9,1.9,81,0.00,,,0.14,TxWx,2013-06-27 17:23:00,
2013-06-27 13:26:00,79.9,73.0,30.02,East,96,1.9,1.9,81,0.00,,,0.14,TxWx,2013-06-27 17:26:00,
2013-06-27 13:27:00,80.1,74.0,30.02,East,96,1.2,1.2,81,0.00,,,0.14,TxWx,2013-06-27 17:27:00,
2013-06-27 13:28:00,80.0,73.0,30.02,East,96,1.9,1.9,81,0.00,,,0.14,TxWx,2013-06-27 17:28:00,
2013-06-27 13:31:00,80.0,73.0,30.02,SW,231,0.6,0.6,81,0.00,,,0.14,TxWx,2013-06-27 17:31:00,
2013-06-27 13:32:00,80.0,73.0,30.02,SW,231,0.6,1.2,81,0.00,,,0.14,TxWx,2013-06-27 17:32:00,
2013-06-27 13:33:00,80.0,73.0,30.02,North,6,1.9,1.9,81,0.00,,,0.14,TxWx,2013-06-27 17:33:00,
2013-06-27 13:37:00,80.7,74.0,30.02,North,6,1.2,1.9,81,0.00,,,0.14,TxWx,2013-06-27 17:37:00,
2013-06-27 13:38:00,80.5,73.0,30.02,North,6,1.9,1.9,80,0.00,,,0.14,TxWx,2013-06-27 17:38:00,
2013-06-27 13:39:00,80.3,73.0,30.02,NNE,28,1.9,1.9,80,0.00,,,0.14,TxWx,2013-06-27 17:39:00,
2013-06-27 13:42:00,81.2,74.0,30.02,NNE,28,1.2,1.2,81,0.00,,,0.14,TxWx,2013-06-27 17:42:00,
2013-06-27 13:43:00,81.1,74.0,30.02,NNE,28,1.9,2.5,80,0.00,,,0.14,TxWx,2013-06-27 17:43:00,
2013-06-27 13:44:00,81.1,74.0,30.02,NNE,28,1.2,1.2,80,0.00,,,0.14,TxWx,2013-06-27 17:44:00,
2013-06-27 13:45:00,80.9,74.0,30.02,NNE,28,1.2,1.9,79,0.00,,,0.14,TxWx,2013-06-27 17:45:00,
2013-06-27 13:47:00,81.4,74.0,30.02,NNE,28,1.9,1.9,80,0.00,,,0.14,TxWx,2013-06-27 17:47:00,
2013-06-27 13:49:00,81.5,75.0,30.02,East,96,1.9,1.9,80,0.00,,,0.14,TxWx,2013-06-27 17:49:00,
2013-06-27 13:50:00,81.5,75.0,30.02,East,96,1.9,1.9,80,0.00,,,0.14,TxWx,2013-06-27 17:50:00,
2013-06-27 13:52:00,81.5,75.0,30.02,NE,51,3.7,3.7,79,0.00,,,0.14,TxWx,2013-06-27 17:52:00,
2013-06-27 13:53:00,81.4,74.0,30.02,ENE,73,3.1,3.1,79,0.00,,,0.14,TxWx,2013-06-27 17:53:00,
2013-06-27 13:54:00,81.2,73.0,30.02,NE,51,2.5,3.1,78,0.00,,,0.14,TxWx,2013-06-27 17:54:00,
2013-06-27 13:57:00,81.1,73.0,30.02,ESE,118,3.1,3.1,78,0.00,,,0.14,TxWx,2013-06-27 17:57:00,
2013-06-27 13:58:00,81.3,73.0,30.03,East,96,3.7,3.7,78,0.00,,,0.14,TxWx,2013-06-27 17:58:00,
2013-06-27 13:59:00,81.1,73.0,30.02,ESE,118,3.1,3.7,78,0.00,,,0.14,TxWx,2013-06-27 17:59:00,
2013-06-27 14:01:00,81.8,74.0,30.02,East,96,7.4,7.4,78,0.00,,,0.14,TxWx,2013-06-27 18:01:00,
2013-06-27 14:03:00,81.5,74.0,30.02,East,96,6.8,7.4,78,0.00,,,0.14,TxWx,2013-06-27 18:03:00,
2013-06-27 14:04:00,82.1,74.0,30.02,East,96,5.6,5.6,78,0.00,,,0.14,TxWx,2013-06-27 18:04:00,
2013-06-27 14:05:00,81.9,74.0,30.02,East,96,10.5,10.5,78,0.00,,,0.14,TxWx,2013-06-27 18:05:00,
2013-06-27 14:08:00,81.8,74.0,30.02,East,96,11.8,12.4,78,0.00,,,0.14,TxWx,2013-06-27 18:08:00,
2013-06-27 14:09:00,81.5,74.0,30.02,East,96,12.4,12.4,78,0.00,,,0.14,TxWx,2013-06-27 18:09:00,
2013-06-27 14:10:00,82.1,74.0,30.02,East,96,9.9,9.9,78,0.00,,,0.14,TxWx,2013-06-27 18:10:00,
2013-06-27 14:11:00,82.1,74.0,30.02,ESE,118,9.9,9.9,78,0.00,,,0.14,TxWx,2013-06-27 18:11:00,
2013-06-27 14:12:00,82.0,74.0,30.02,East,96,11.1,11.1,78,0.00,,,0.14,TxWx,2013-06-27 18:12:00,
2013-06-27 14:14:00,82.0,74.0,30.02,East,96,9.3,9.3,78,0.00,,,0.14,TxWx,2013-06-27 18:14:00,
2013-06-27 14:15:00,82.1,74.0,30.02,East,96,9.3,9.9,78,0.00,,,0.14,TxWx,2013-06-27 18:15:00,
2013-06-27 14:17:00,81.8,74.0,30.02,SE,141,8.7,9.3,77,0.00,,,0.14,TxWx,2013-06-27 18:17:00,
2013-06-27 14:18:00,81.9,74.0,30.02,ESE,118,9.3,9.3,77,0.00,,,0.14,TxWx,2013-06-27 18:18:00,
2013-06-27 14:19:00,81.9,74.0,30.02,ESE,118,8.7,9.3,77,0.00,,,0.14,TxWx,2013-06-27 18:19:00,
2013-06-27 14:21:00,81.8,74.0,30.02,SE,141,9.3,9.9,77,0.00,,,0.14,TxWx,2013-06-27 18:21:00,
2013-06-27 14:22:00,82.0,74.0,30.02,East,96,9.3,9.9,77,0.00,,,0.14,TxWx,2013-06-27 18:22:00,
2013-06-27 14:24:00,81.8,74.0,30.02,East,96,9.9,11.1,76,0.00,,,0.14,TxWx,2013-06-27 18:24:00,
2013-06-27 14:28:00,82.1,74.0,30.02,ESE,118,11.8,11.8,76,0.00,,,0.14,TxWx,2013-06-27 18:28:00,
2013-06-27 14:29:00,81.7,73.0,30.02,ESE,118,10.5,10.5,76,0.00,,,0.14,TxWx,2013-06-27 18:29:00,
2013-06-27 14:31:00,82.1,74.0,30.02,East,96,9.9,10.5,76,0.00,,,0.14,TxWx,2013-06-27 18:31:00,
2013-06-27 14:32:00,81.8,73.0,30.02,ESE,118,11.1,11.1,76,0.00,,,0.14,TxWx,2013-06-27 18:32:00,
2013-06-27 14:34:00,82.8,75.0,30.02,ESE,118,9.9,9.9,77,0.00,,,0.14,TxWx,2013-06-27 18:34:00,
2013-06-27 14:35:00,82.5,74.0,30.02,East,96,8.7,9.3,77,0.00,,,0.14,TxWx,2013-06-27 18:35:00,
2013-06-27 14:38:00,82.3,74.0,30.02,ESE,118,10.5,11.1,76,0.00,,,0.14,TxWx,2013-06-27 18:38:00,
2013-06-27 14:39:00,82.8,75.0,30.02,East,96,9.9,9.9,77,0.00,,,0.14,TxWx,2013-06-27 18:39:00,
2013-06-27 14:40:00,82.1,74.0,30.02,ESE,118,11.8,11.8,77,0.00,,,0.14,TxWx,2013-06-27 18:40:00,
2013-06-27 14:43:00,82.4,74.0,30.02,ESE,118,11.1,11.1,77,0.00,,,0.14,TxWx,2013-06-27 18:43:00,
2013-06-27 14:44:00,82.4,74.0,30.02,ESE,118,11.8,11.8,77,0.00,,,0.14,TxWx,2013-06-27 18:44:00,
2013-06-27 14:46:00,82.8,75.0,30.02,ESE,118,8.7,8.7,77,0.00,,,0.14,TxWx,2013-06-27 18:46:00,
2013-06-27 14:48:00,82.3,74.0,30.02,ESE,118,11.1,11.1,76,0.00,,,0.14,TxWx,2013-06-27 18:48:00,
2013-06-27 14:49:00,82.9,75.0,30.01,ESE,118,10.5,11.8,77,0.00,,,0.14,TxWx,2013-06-27 18:49:00,
2013-06-27 14:50:00,82.8,75.0,30.01,East,96,9.9,10.5,77,0.00,,,0.14,TxWx,2013-06-27 18:50:00,
2013-06-27 14:51:00,82.5,75.0,30.01,ESE,118,11.1,11.1,76,0.00,,,0.14,TxWx,2013-06-27 18:51:00,
2013-06-27 14:53:00,82.4,74.0,30.01,East,96,10.5,10.5,76,0.00,,,0.14,TxWx,2013-06-27 18:53:00,
2013-06-27 14:55:00,82.2,74.0,30.01,East,96,9.9,11.1,76,0.00,,,0.14,TxWx,2013-06-27 18:55:00,
2013-06-27 14:56:00,82.0,74.0,30.01,East,96,10.5,10.5,76,0.00,,,0.14,TxWx,2013-06-27 18:56:00,
2013-06-27 14:58:00,82.5,75.0,30.01,East,96,9.9,10.5,77,0.00,,,0.14,TxWx,2013-06-27 18:58:00,
2013-06-27 15:01:00,82.6,75.0,30.01,ESE,118,9.3,9.3,78,0.00,,,0.14,TxWx,2013-06-27 19:01:00,
2013-06-27 15:03:00,82.4,74.0,30.01,ESE,118,11.1,11.1,77,0.00,,,0.14,TxWx,2013-06-27 19:03:00,
2013-06-27 15:04:00,82.0,74.0,30.01,East,96,11.8,11.8,77,0.00,,,0.14,TxWx,2013-06-27 19:04:00,
2013-06-27 15:05:00,82.3,74.0,30.01,East,96,10.5,10.5,77,0.00,,,0.14,TxWx,2013-06-27 19:05:00,
2013-06-27 15:07:00,82.4,74.0,30.01,ESE,118,8.0,8.0,78,0.00,,,0.14,TxWx,2013-06-27 19:07:00,
2013-06-27 15:08:00,83.0,75.0,30.01,ESE,118,8.7,8.7,78,0.00,,,0.14,TxWx,2013-06-27 19:08:00,
2013-06-27 15:10:00,82.7,75.0,30.02,ESE,118,9.3,9.3,77,0.00,,,0.14,TxWx,2013-06-27 19:10:00,
2013-06-27 15:11:00,82.5,75.0,30.02,ESE,118,8.0,8.0,77,0.00,,,0.14,TxWx,2013-06-27 19:11:00,
2013-06-27 15:12:00,82.3,74.0,30.02,ESE,118,9.9,10.5,77,0.00,,,0.14,TxWx,2013-06-27 19:12:00,
2013-06-27 15:13:00,82.4,74.0,30.02,East,96,9.3,10.5,77,0.00,,,0.14,TxWx,2013-06-27 19:13:00,
2013-06-27 15:14:00,82.4,74.0,30.02,ESE,118,9.9,11.1,77,0.00,,,0.14,TxWx,2013-06-27 19:14:00,
2013-06-27 15:18:00,82.3,74.0,30.02,East,96,11.1,11.8,77,0.00,,,0.14,TxWx,2013-06-27 19:18:00,
2013-06-27 15:19:00,82.5,74.0,30.02,ESE,118,12.4,12.4,77,0.00,,,0.14,TxWx,2013-06-27 19:19:00,
2013-06-27 15:22:00,82.9,75.0,30.02,East,96,7.4,8.7,78,0.00,,,0.14,TxWx,2013-06-27 19:22:00,
2013-06-27 15:23:00,82.8,75.0,30.02,ESE,118,10.5,10.5,78,0.00,,,0.14,TxWx,2013-06-27 19:23:00,
2013-06-27 15:24:00,82.6,75.0,30.02,ESE,118,9.3,9.9,78,0.00,,,0.14,TxWx,2013-06-27 19:24:00,
2013-06-27 15:25:00,83.0,75.0,30.02,East,96,8.7,9.3,78,0.00,,,0.14,TxWx,2013-06-27 19:25:00,
2013-06-27 15:26:00,82.5,75.0,30.02,ESE,118,9.3,9.3,77,0.00,,,0.14,TxWx,2013-06-27 19:26:00,
2013-06-27 15:28:00,83.0,75.0,30.02,East,96,8.0,9.3,78,0.00,,,0.14,TxWx,2013-06-27 19:28:00,
2013-06-27 15:29:00,82.6,75.0,30.02,ESE,118,9.9,9.9,77,0.00,,,0.14,TxWx,2013-06-27 19:29:00,
2013-06-27 15:30:00,82.8,75.0,30.02,ESE,118,8.0,9.3,77,0.00,,,0.14,TxWx,2013-06-27 19:30:00,
2013-06-27 15:31:00,82.3,74.0,30.02,ESE,118,11.1,11.1,77,0.00,,,0.14,TxWx,2013-06-27 19:31:00,
2013-06-27 15:34:00,82.4,74.0,30.02,ESE,118,8.0,8.0,77,0.00,,,0.14,TxWx,2013-06-27 19:34:00,
2013-06-27 15:35:00,82.5,74.0,30.02,East,96,9.3,9.3,77,0.00,,,0.14,TxWx,2013-06-27 19:35:00,
2013-06-27 15:37:00,82.2,74.0,30.01,ESE,118,8.0,8.0,76,0.00,,,0.14,TxWx,2013-06-27 19:37:00,
2013-06-27 15:39:00,82.5,74.0,30.01,East,96,8.7,9.3,77,0.00,,,0.14,TxWx,2013-06-27 19:39:00,
2013-06-27 15:40:00,82.7,75.0,30.01,East,96,8.7,9.9,77,0.00,,,0.14,TxWx,2013-06-27 19:40:00,
2013-06-27 15:41:00,82.3,74.0,30.01,ESE,118,11.1,11.8,77,0.00,,,0.14,TxWx,2013-06-27 19:41:00,
2013-06-27 15:43:00,82.7,75.0,30.01,East,96,8.7,8.7,77,0.00,,,0.14,TxWx,2013-06-27 19:43:00,
2013-06-27 15:44:00,82.3,74.0,30.01,SE,141,9.3,9.9,77,0.00,,,0.14,TxWx,2013-06-27 19:44:00,
2013-06-27 15:46:00,82.6,75.0,30.01,ESE,118,11.1,11.1,77,0.00,,,0.14,TxWx,2013-06-27 19:46:00,
2013-06-27 15:50:00,82.6,75.0,30.00,East,96,9.9,9.9,77,0.00,,,0.14,TxWx,2013-06-27 19:50:00,
2013-06-27 15:51:00,82.4,74.0,30.01,ESE,118,9.9,13.6,77,0.00,,,0.14,TxWx,2013-06-27 19:51:00,
2013-06-27 15:52:00,82.2,74.0,30.01,ESE,118,10.5,10.5,76,0.00,,,0.14,TxWx,2013-06-27 19:52:00,
2013-06-27 15:54:00,82.6,75.0,30.00,ESE,118,10.5,10.5,77,0.00,,,0.14,TxWx,2013-06-27 19:54:00,
2013-06-27 15:56:00,82.9,75.0,30.00,ESE,118,9.3,9.9,77,0.00,,,0.14,TxWx,2013-06-27 19:56:00,
2013-06-27 15:57:00,82.8,75.0,30.00,ESE,118,8.7,8.7,77,0.00,,,0.14,TxWx,2013-06-27 19:57:00,
2013-06-27 15:59:00,82.5,75.0,30.00,ESE,118,9.9,11.1,76,0.00,,,0.14,TxWx,2013-06-27 19:59:00,
2013-06-27 16:01:00,82.9,75.0,30.00,ESE,118,11.1,11.1,77,0.00,,,0.14,TxWx,2013-06-27 20:01:00,
2013-06-27 16:03:00,83.1,75.0,30.00,East,96,8.7,9.3,77,0.00,,,0.14,TxWx,2013-06-27 20:03:00,
2013-06-27 16:04:00,82.8,75.0,30.00,SE,141,11.1,12.4,77,0.00,,,0.14,TxWx,2013-06-27 20:04:00,
2013-06-27 16:05:00,82.7,75.0,30.00,ESE,118,9.3,9.9,77,0.00,,,0.14,TxWx,2013-06-27 20:05:00,
2013-06-27 16:08:00,82.5,74.0,30.00,SE,141,11.1,11.1,77,0.00,,,0.14,TxWx,2013-06-27 20:08:00,
2013-06-27 16:09:00,82.7,75.0,30.00,SE,141,8.7,9.3,77,0.00,,,0.14,TxWx,2013-06-27 20:09:00,
2013-06-27 16:10:00,82.7,75.0,30.00,SE,141,9.9,9.9,77,0.00,,,0.14,TxWx,2013-06-27 20:10:00,
2013-06-27 16:11:00,82.5,75.0,30.00,SE,141,9.3,10.5,77,0.00,,,0.14,TxWx,2013-06-27 20:11:00,
2013-06-27 16:14:00,82.2,74.0,30.00,SE,141,11.8,11.8,77,0.00,,,0.14,TxWx,2013-06-27 20:14:00,
2013-06-27 16:15:00,82.4,74.0,30.00,ESE,118,9.3,9.3,77,0.00,,,0.14,TxWx,2013-06-27 20:15:00,
2013-06-27 16:16:00,82.5,75.0,30.00,ESE,118,9.3,11.1,77,0.00,,,0.14,TxWx,2013-06-27 20:16:00,
2013-06-27 16:17:00,82.2,74.0,30.00,SE,141,10.5,11.8,77,0.00,,,0.14,TxWx,2013-06-27 20:17:00,
2013-06-27 16:21:00,82.2,74.0,30.00,ESE,118,9.3,9.9,77,0.00,,,0.14,TxWx,2013-06-27 20:21:00,
2013-06-27 16:22:00,82.1,74.0,30.00,SE,141,10.5,11.8,77,0.00,,,0.14,TxWx,2013-06-27 20:22:00,
2013-06-27 16:23:00,82.0,74.0,30.00,ESE,118,9.9,11.1,77,0.00,,,0.14,TxWx,2013-06-27 20:23:00,
2013-06-27 16:24:00,82.1,74.0,30.00,SE,141,10.5,10.5,77,0.00,,,0.14,TxWx,2013-06-27 20:24:00,
2013-06-27 16:25:00,82.3,74.0,30.00,SE,141,9.9,10.5,77,0.00,,,0.14,TxWx,2013-06-27 20:25:00,
2013-06-27 16:27:00,82.2,74.0,30.00,ESE,118,10.5,11.1,77,0.00,,,0.14,TxWx,2013-06-27 20:27:00,
2013-06-27 16:28:00,82.3,74.0,30.00,SE,141,9.3,11.1,77,0.00,,,0.14,TxWx,2013-06-27 20:28:00,
2013-06-27 16:29:00,82.4,74.0,30.00,SE,141,10.5,10.5,77,0.00,,,0.14,TxWx,2013-06-27 20:29:00,
2013-06-27 16:33:00,82.4,74.0,29.99,ESE,118,9.9,9.9,77,0.00,,,0.14,TxWx,2013-06-27 20:33:00,
2013-06-27 16:34:00,82.1,74.0,29.99,ESE,118,11.1,11.1,77,0.00,,,0.14,TxWx,2013-06-27 20:34:00,
2013-06-27 16:36:00,82.3,74.0,29.99,SE,141,9.3,9.3,77,0.00,,,0.14,TxWx,2013-06-27 20:36:00,
2013-06-27 16:40:00,82.1,74.0,29.99,SE,141,9.9,9.9,77,0.00,,,0.14,TxWx,2013-06-27 20:40:00,
2013-06-27 16:42:00,82.1,74.0,29.99,SE,141,10.5,10.5,77,0.00,,,0.14,TxWx,2013-06-27 20:42:00,
2013-06-27 16:44:00,82.1,74.0,29.99,SE,141,9.9,9.9,77,0.00,,,0.14,TxWx,2013-06-27 20:44:00,
2013-06-27 16:47:00,82.4,74.0,29.99,ESE,118,8.7,8.7,77,0.00,,,0.14,TxWx,2013-06-27 20:47:00,
2013-06-27 16:48:00,82.0,74.0,29.99,ESE,118,8.7,8.7,77,0.00,,,0.14,TxWx,2013-06-27 20:48:00,
2013-06-27 16:52:00,81.8,74.0,29.99,SE,141,8.7,9.9,76,0.00,,,0.14,TxWx,2013-06-27 20:52:00,
2013-06-27 16:53:00,82.2,74.0,29.99,SE,141,8.7,8.7,76,0.00,,,0.14,TxWx,2013-06-27 20:53:00,
2013-06-27 16:54:00,82.3,74.0,29.99,ESE,118,8.7,9.9,76,0.00,,,0.14,TxWx,2013-06-27 20:54:00,
2013-06-27 16:57:00,82.1,73.0,29.99,ESE,118,11.1,11.1,76,0.00,,,0.14,TxWx,2013-06-27 20:57:00,
2013-06-27 16:58:00,82.2,73.0,29.99,SE,141,9.3,9.9,76,0.00,,,0.14,TxWx,2013-06-27 20:58:00,
2013-06-27 16:59:00,82.2,73.0,29.99,SE,141,8.7,8.7,75,0.00,,,0.14,TxWx,2013-06-27 20:59:00,
2013-06-27 17:03:00,82.6,74.0,29.99,ESE,118,8.0,9.3,75,0.00,,,0.14,TxWx,2013-06-27 21:03:00,
2013-06-27 17:04:00,82.8,75.0,29.99,SE,141,8.0,8.0,76,0.00,,,0.14,TxWx,2013-06-27 21:04:00,
2013-06-27 17:05:00,82.5,74.0,29.99,SE,141,9.3,9.3,76,0.00,,,0.14,TxWx,2013-06-27 21:05:00,
2013-06-27 17:09:00,82.3,73.0,29.99,SE,141,8.7,8.7,75,0.00,,,0.14,TxWx,2013-06-27 21:09:00,
2013-06-27 17:10:00,82.2,73.0,29.99,ESE,118,8.7,9.9,75,0.00,,,0.14,TxWx,2013-06-27 21:10:00,
2013-06-27 17:11:00,82.5,74.0,29.99,SE,141,8.7,9.3,76,0.00,,,0.14,TxWx,2013-06-27 21:11:00,
2013-06-27 17:15:00,82.5,74.0,29.99,ESE,118,8.0,8.0,76,0.00,,,0.14,TxWx,2013-06-27 21:15:00,
2013-06-27 17:16:00,82.4,74.0,29.99,SE,141,8.7,8.7,76,0.00,,,0.14,TxWx,2013-06-27 21:16:00,
2013-06-27 17:17:00,82.1,73.0,29.99,ESE,118,8.7,9.3,76,0.00,,,0.14,TxWx,2013-06-27 21:17:00,
2013-06-27 17:18:00,82.0,73.0,29.99,ESE,118,6.8,6.8,75,0.00,,,0.14,TxWx,2013-06-27 21:18:00,
2013-06-27 17:20:00,82.4,73.0,29.99,ESE,118,6.8,6.8,76,0.00,,,0.14,TxWx,2013-06-27 21:20:00,
2013-06-27 17:22:00,82.2,73.0,29.99,SE,141,6.2,6.8,75,0.00,,,0.14,TxWx,2013-06-27 21:22:00,
2013-06-27 17:23:00,82.2,73.0,29.99,SE,141,6.2,6.2,75,0.00,,,0.14,TxWx,2013-06-27 21:23:00,
2013-06-27 17:24:00,82.3,73.0,29.99,SE,141,5.6,6.8,76,0.00,,,0.14,TxWx,2013-06-27 21:24:00,
2013-06-27 17:27:00,82.5,74.0,30.00,SE,141,6.8,6.8,76,0.00,,,0.14,TxWx,2013-06-27 21:27:00,
2013-06-27 17:29:00,82.4,73.0,29.99,SE,141,6.2,6.2,75,0.00,,,0.14,TxWx,2013-06-27 21:29:00,
2013-06-27 17:34:00,82.2,73.0,29.99,SE,141,8.0,8.0,75,0.00,,,0.14,TxWx,2013-06-27 21:34:00,
2013-06-27 17:35:00,82.7,74.0,29.99,ESE,118,6.2,7.4,75,0.00,,,0.14,TxWx,2013-06-27 21:35:00,
2013-06-27 17:36:00,82.3,73.0,29.99,SE,141,7.4,8.0,75,0.00,,,0.14,TxWx,2013-06-27 21:36:00,
2013-06-27 17:39:00,82.3,73.0,29.98,SE,141,7.4,8.0,74,0.00,,,0.14,TxWx,2013-06-27 21:39:00,
2013-06-27 17:40:00,82.5,73.0,29.98,SE,141,7.4,8.0,74,0.00,,,0.14,TxWx,2013-06-27 21:40:00,
2013-06-27 17:41:00,82.6,74.0,29.98,SE,141,8.7,8.7,74,0.00,,,0.14,TxWx,2013-06-27 21:41:00,
2013-06-27 17:42:00,82.5,74.0,29.98,SE,141,6.2,6.8,74,0.00,,,0.14,TxWx,2013-06-27 21:42:00,
2013-06-27 17:45:00,82.8,74.0,29.98,SE,141,5.6,5.6,74,0.00,,,0.14,TxWx,2013-06-27 21:45:00,
2013-06-27 17:47:00,82.8,74.0,29.98,SE,141,5.6,5.6,74,0.00,,,0.14,TxWx,2013-06-27 21:47:00,
2013-06-27 17:50:00,82.4,72.0,29.98,SE,141,7.4,7.4,73,0.00,,,0.14,TxWx,2013-06-27 21:50:00,
2013-06-27 17:53:00,82.6,73.0,29.98,ESE,118,6.2,7.4,73,0.00,,,0.14,TxWx,2013-06-27 21:53:00,
2013-06-27 17:55:00,83.3,74.0,29.98,SE,141,5.0,5.0,74,0.00,,,0.14,TxWx,2013-06-27 21:55:00,
2013-06-27 17:58:00,82.9,74.0,29.98,SE,141,8.0,8.0,75,0.00,,,0.14,TxWx,2013-06-27 21:58:00,
2013-06-27 18:00:00,82.8,74.0,29.98,SE,141,6.2,6.2,75,0.00,,,0.14,TxWx,2013-06-27 22:00:00,
2013-06-27 18:02:00,82.7,74.0,29.98,ESE,118,6.2,6.2,75,0.00,,,0.14,TxWx,2013-06-27 22:02:00,
2013-06-27 18:04:00,82.6,74.0,29.98,SE,141,8.0,8.0,75,0.00,,,0.14,TxWx,2013-06-27 22:04:00,
2013-06-27 18:05:00,82.5,74.0,29.98,ESE,118,6.2,6.8,75,0.00,,,0.14,TxWx,2013-06-27 22:05:00,
2013-06-27 18:07:00,82.5,73.0,29.98,SE,141,8.0,8.0,75,0.00,,,0.14,TxWx,2013-06-27 22:07:00,
2013-06-27 18:09:00,82.5,73.0,29.98,SE,141,7.4,8.0,75,0.00,,,0.14,TxWx,2013-06-27 22:09:00,
2013-06-27 18:11:00,82.3,73.0,29.98,SE,141,6.8,6.8,75,0.00,,,0.14,TxWx,2013-06-27 22:11:00,
2013-06-27 18:12:00,82.3,73.0,29.98,SE,141,6.2,6.2,74,0.00,,,0.14,TxWx,2013-06-27 22:12:00,
2013-06-27 18:14:00,82.2,73.0,29.98,ESE,118,6.2,6.2,74,0.00,,,0.14,TxWx,2013-06-27 22:14:00,
2013-06-27 18:20:00,82.4,73.0,29.98,SE,141,6.8,6.8,74,0.00,,,0.14,TxWx,2013-06-27 22:20:00,
2013-06-27 18:21:00,82.6,74.0,29.98,ESE,118,6.2,6.8,74,0.00,,,0.14,TxWx,2013-06-27 22:21:00,
2013-06-27 18:25:00,82.8,74.0,29.98,ESE,118,5.0,5.0,74,0.00,,,0.14,TxWx,2013-06-27 22:25:00,
2013-06-27 18:27:00,82.3,73.0,29.98,ESE,118,7.4,7.4,74,0.00,,,0.14,TxWx,2013-06-27 22:27:00,
2013-06-27 18:28:00,82.6,74.0,29.98,SE,141,7.4,8.0,74,0.00,,,0.14,TxWx,2013-06-27 22:28:00,
2013-06-27 18:30:00,82.6,74.0,29.98,SSE,163,5.6,5.6,74,0.00,,,0.14,TxWx,2013-06-27 22:30:00,
2013-06-27 18:32:00,82.4,73.0,29.98,SSE,163,6.2,6.2,74,0.00,,,0.14,TxWx,2013-06-27 22:32:00,
2013-06-27 18:33:00,82.4,73.0,29.98,SSE,163,5.0,6.8,75,0.00,,,0.14,TxWx,2013-06-27 22:33:00,
2013-06-27 18:34:00,82.4,73.0,29.98,SSE,163,7.4,7.4,75,0.00,,,0.14,TxWx,2013-06-27 22:34:00,
2013-06-27 18:38:00,82.5,73.0,29.97,SE,141,7.4,8.7,75,0.00,,,0.14,TxWx,2013-06-27 22:38:00,
2013-06-27 18:41:00,82.5,74.0,29.97,SE,141,9.3,9.3,76,0.00,,,0.14,TxWx,2013-06-27 22:41:00,
2013-06-27 18:42:00,82.3,73.0,29.97,East,96,6.2,8.0,76,0.00,,,0.14,TxWx,2013-06-27 22:42:00,
2013-06-27 18:44:00,82.2,73.0,29.97,SSE,163,8.0,8.0,76,0.00,,,0.14,TxWx,2013-06-27 22:44:00,
2013-06-27 18:45:00,82.4,74.0,29.97,SE,141,8.0,8.0,76,0.00,,,0.14,TxWx,2013-06-27 22:45:00,
2013-06-27 18:46:00,82.1,73.0,29.97,SE,141,8.0,8.0,76,0.00,,,0.14,TxWx,2013-06-27 22:46:00,
2013-06-27 18:50:00,82.2,74.0,29.97,SE,141,9.9,9.9,76,0.00,,,0.14,TxWx,2013-06-27 22:50:00,
2013-06-27 18:54:00,82.1,74.0,29.97,SE,141,8.7,9.3,76,0.00,,,0.14,TxWx,2013-06-27 22:54:00,
2013-06-27 18:55:00,82.1,73.0,29.97,ESE,118,5.6,6.2,76,0.00,,,0.14,TxWx,2013-06-27 22:55:00,
2013-06-27 18:56:00,82.3,74.0,29.97,ESE,118,9.9,9.9,76,0.00,,,0.14,TxWx,2013-06-27 22:56:00,
2013-06-27 18:58:00,82.4,74.0,29.97,SSE,163,6.2,6.2,77,0.00,,,0.14,TxWx,2013-06-27 22:58:00,
2013-06-27 19:00:00,82.2,74.0,29.97,SE,141,9.3,11.1,77,0.00,,,0.14,TxWx,2013-06-27 23:00:00,
2013-06-27 19:01:00,82.3,74.0,29.97,SSE,163,9.3,9.3,77,0.00,,,0.14,TxWx,2013-06-27 23:01:00,
2013-06-27 19:03:00,82.0,74.0,29.97,SSE,163,9.9,9.9,77,0.00,,,0.14,TxWx,2013-06-27 23:03:00,
2013-06-27 19:05:00,82.0,74.0,29.97,SSE,163,7.4,8.7,77,0.00,,,0.14,TxWx,2013-06-27 23:05:00,
2013-06-27 19:07:00,82.2,74.0,29.96,SSE,163,9.3,9.3,77,0.00,,,0.14,TxWx,2013-06-27 23:07:00,
2013-06-27 19:08:00,82.0,74.0,29.96,SSE,163,9.9,13.0,77,0.00,,,0.14,TxWx,2013-06-27 23:08:00,
2013-06-27 19:10:00,81.9,74.0,29.96,SE,141,9.9,9.9,77,0.00,,,0.14,TxWx,2013-06-27 23:10:00,
2013-06-27 19:11:00,82.0,74.0,29.96,SE,141,6.8,8.0,77,0.00,,,0.14,TxWx,2013-06-27 23:11:00,
2013-06-27 19:13:00,82.0,74.0,29.96,SSE,163,8.0,8.7,77,0.00,,,0.14,TxWx,2013-06-27 23:13:00,
2013-06-27 19:14:00,82.0,74.0,29.96,ESE,118,6.2,9.3,77,0.00,,,0.14,TxWx,2013-06-27 23:14:00,
2013-06-27 19:15:00,82.0,74.0,29.96,SSE,163,9.9,9.9,77,0.00,,,0.14,TxWx,2013-06-27 23:15:00,
2013-06-27 19:16:00,82.0,74.0,29.96,SE,141,9.3,9.3,77,0.00,,,0.14,TxWx,2013-06-27 23:16:00,
2013-06-27 19:20:00,82.2,74.0,29.96,SSE,163,8.7,8.7,78,0.00,,,0.14,TxWx,2013-06-27 23:20:00,
2013-06-27 19:21:00,81.9,74.0,29.96,SSE,163,7.4,7.4,78,0.00,,,0.14,TxWx,2013-06-27 23:21:00,
2013-06-27 19:25:00,81.8,74.0,29.96,SSE,163,5.6,6.2,77,0.00,,,0.14,TxWx,2013-06-27 23:25:00,
2013-06-27 19:26:00,81.9,74.0,29.97,SE,141,8.0,8.0,78,0.00,,,0.14,TxWx,2013-06-27 23:26:00,
2013-06-27 19:28:00,82.0,74.0,29.97,ESE,118,6.8,7.4,78,0.00,,,0.14,TxWx,2013-06-27 23:28:00,
2013-06-27 19:30:00,81.8,74.0,29.96,SE,141,5.0,5.0,77,0.00,,,0.14,TxWx,2013-06-27 23:30:00,
2013-06-27 19:32:00,81.8,74.0,29.97,SSE,163,6.2,6.8,78,0.00,,,0.14,TxWx,2013-06-27 23:32:00,
2013-06-27 19:34:00,81.8,74.0,29.97,SE,141,7.4,9.3,77,0.00,,,0.14,TxWx,2013-06-27 23:34:00,
2013-06-27 19:36:00,81.8,74.0,29.97,SE,141,6.2,6.2,77,0.00,,,0.14,TxWx,2013-06-27 23:36:00,
2013-06-27 19:38:00,81.8,74.0,29.97,SSE,163,5.6,6.2,77,0.00,,,0.14,TxWx,2013-06-27 23:38:00,
2013-06-27 19:39:00,81.9,74.0,29.97,SE,141,5.0,5.6,77,0.00,,,0.14,TxWx,2013-06-27 23:39:00,
2013-06-27 19:41:00,82.0,74.0,29.97,SE,141,6.2,6.2,77,0.00,,,0.14,TxWx,2013-06-27 23:41:00,
2013-06-27 19:43:00,82.0,74.0,29.97,South,186,3.7,3.7,77,0.00,,,0.14,TxWx,2013-06-27 23:43:00,
2013-06-27 19:44:00,82.0,74.0,29.97,SSE,163,7.4,7.4,77,0.00,,,0.14,TxWx,2013-06-27 23:44:00,
2013-06-27 19:47:00,81.9,74.0,29.97,SE,141,4.3,5.6,77,0.00,,,0.14,TxWx,2013-06-27 23:47:00,
2013-06-27 19:49:00,82.2,74.0,29.97,SE,141,8.0,8.0,78,0.00,,,0.14,TxWx,2013-06-27 23:49:00,
2013-06-27 19:50:00,82.0,74.0,29.97,SSE,163,5.6,6.2,77,0.00,,,0.14,TxWx,2013-06-27 23:50:00,
2013-06-27 19:53:00,82.2,74.0,29.97,SSE,163,5.6,5.6,78,0.00,,,0.14,TxWx,2013-06-27 23:53:00,
2013-06-27 19:54:00,82.1,74.0,29.97,SE,141,7.4,8.0,78,0.00,,,0.14,TxWx,2013-06-27 23:54:00,
2013-06-27 19:55:00,81.7,74.0,29.98,SE,141,5.6,5.6,77,0.00,,,0.14,TxWx,2013-06-27 23:55:00,
2013-06-27 19:56:00,81.7,74.0,29.98,SE,141,5.0,5.6,77,0.00,,,0.14,TxWx,2013-06-27 23:56:00,
2013-06-27 19:58:00,81.8,74.0,29.98,SSE,163,6.8,6.8,77,0.00,,,0.14,TxWx,2013-06-27 23:58:00,
2013-06-27 20:00:00,82.0,74.0,29.98,SE,141,4.3,6.2,77,0.00,,,0.14,TxWx,2013-06-28 00:00:00,
2013-06-27 20:02:00,82.0,74.0,29.98,SE,141,4.3,5.6,77,0.00,,,0.14,TxWx,2013-06-28 00:02:00,
2013-06-27 20:03:00,82.1,74.0,29.98,South,186,5.6,6.2,77,0.00,,,0.14,TxWx,2013-06-28 00:03:00,
2013-06-27 20:09:00,81.8,74.0,29.98,SSE,163,5.6,5.6,77,0.00,,,0.14,TxWx,2013-06-28 00:09:00,
2013-06-27 20:11:00,81.8,74.0,29.98,SSE,163,5.0,5.0,77,0.00,,,0.14,TxWx,2013-06-28 00:11:00,
2013-06-27 20:14:00,82.0,74.0,29.98,SE,141,3.7,3.7,77,0.00,,,0.14,TxWx,2013-06-28 00:14:00,
2013-06-27 20:17:00,82.0,74.0,29.98,WSW,253,3.7,4.3,77,0.00,,,0.14,TxWx,2013-06-28 00:17:00,
2013-06-27 20:19:00,82.1,74.0,29.98,SSE,163,4.3,4.3,77,0.00,,,0.14,TxWx,2013-06-28 00:19:00,
2013-06-27 20:20:00,82.0,74.0,29.98,ESE,118,4.3,5.6,77,0.00,,,0.14,TxWx,2013-06-28 00:20:00,
2013-06-27 20:23:00,82.0,74.0,29.98,SSE,163,5.6,5.6,77,0.00,,,0.14,TxWx,2013-06-28 00:23:00,
2013-06-27 20:24:00,82.0,74.0,29.98,SSE,163,3.1,3.7,77,0.00,,,0.14,TxWx,2013-06-28 00:24:00,
2013-06-27 20:25:00,82.0,74.0,29.98,SSW,208,3.7,3.7,77,0.00,,,0.14,TxWx,2013-06-28 00:25:00,
2013-06-27 20:31:00,81.9,74.0,29.98,SSW,208,3.1,3.1,77,0.00,,,0.14,TxWx,2013-06-28 00:31:00,
2013-06-27 20:32:00,82.0,74.0,29.98,SSE,163,5.6,6.2,77,0.00,,,0.14,TxWx,2013-06-28 00:32:00,
2013-06-27 20:34:00,81.9,74.0,29.98,SE,141,6.8,6.8,77,0.00,,,0.14,TxWx,2013-06-28 00:34:00,
2013-06-27 20:36:00,81.9,74.0,29.98,SE,141,6.8,7.4,77,0.00,,,0.14,TxWx,2013-06-28 00:36:00,
2013-06-27 20:37:00,81.7,74.0,29.98,SE,141,5.6,6.2,77,0.00,,,0.14,TxWx,2013-06-28 00:37:00,
2013-06-27 20:39:00,82.0,74.0,29.98,SSE,163,6.8,6.8,77,0.00,,,0.14,TxWx,2013-06-28 00:39:00,
2013-06-27 20:42:00,81.7,74.0,29.98,SSE,163,4.3,5.6,77,0.00,,,0.14,TxWx,2013-06-28 00:42:00,
2013-06-27 20:44:00,81.8,74.0,29.98,South,186,5.6,7.4,77,0.00,,,0.14,TxWx,2013-06-28 00:44:00,
2013-06-27 20:45:00,81.8,74.0,29.98,SSE,163,4.3,4.3,76,0.00,,,0.14,TxWx,2013-06-28 00:45:00,
2013-06-27 20:48:00,81.9,74.0,29.97,South,186,4.3,4.3,76,0.00,,,0.14,TxWx,2013-06-28 00:48:00,
2013-06-27 20:51:00,81.9,73.0,29.97,South,186,5.6,5.6,76,0.00,,,0.14,TxWx,2013-06-28 00:51:00,
2013-06-27 20:53:00,82.0,73.0,29.98,SE,141,9.3,9.3,76,0.00,,,0.14,TxWx,2013-06-28 00:53:00,
2013-06-27 20:56:00,82.2,73.0,29.98,SE,141,5.0,5.6,76,0.00,,,0.14,TxWx,2013-06-28 00:56:00,
2013-06-27 20:58:00,82.0,73.0,29.98,South,186,8.0,8.0,76,0.00,,,0.14,TxWx,2013-06-28 00:58:00,
2013-06-27 20:59:00,82.0,73.0,29.97,SE,141,6.8,7.4,76,0.00,,,0.14,TxWx,2013-06-28 00:59:00,
2013-06-27 21:00:00,81.9,73.0,29.98,SSE,163,8.0,8.0,76,0.00,,,0.14,TxWx,2013-06-28 01:00:00,
2013-06-27 21:01:00,82.2,73.0,29.97,South,186,5.6,6.2,76,0.00,,,0.14,TxWx,2013-06-28 01:01:00,
2013-06-27 21:04:00,82.0,73.0,29.98,SE,141,5.6,5.6,76,0.00,,,0.14,TxWx,2013-06-28 01:04:00,
2013-06-27 21:05:00,82.0,73.0,29.98,SSW,208,6.2,6.8,75,0.00,,,0.14,TxWx,2013-06-28 01:05:00,
2013-06-27 21:06:00,82.3,73.0,29.98,SE,141,3.7,5.0,76,0.00,,,0.14,TxWx,2013-06-28 01:06:00,
2013-06-27 21:07:00,82.2,73.0,29.97,SSE,163,3.7,3.7,76,0.00,,,0.14,TxWx,2013-06-28 01:07:00,
2013-06-27 21:09:00,82.1,73.0,29.97,SSE,163,6.8,6.8,76,0.00,,,0.14,TxWx,2013-06-28 01:09:00,
2013-06-27 21:11:00,82.1,73.0,29.97,South,186,6.2,6.8,76,0.00,,,0.14,TxWx,2013-06-28 01:11:00,
2013-06-27 21:12:00,82.3,73.0,29.97,SE,141,5.0,5.0,76,0.00,,,0.14,TxWx,2013-06-28 01:12:00,
2013-06-27 21:13:00,82.2,73.0,29.97,SE,141,7.4,7.4,76,0.00,,,0.14,TxWx,2013-06-28 01:13:00,
2013-06-27 21:15:00,82.1,73.0,29.97,SSE,163,5.6,6.2,76,0.00,,,0.14,TxWx,2013-06-28 01:15:00,
2013-06-27 21:18:00,82.0,73.0,29.98,SE,141,5.6,5.6,76,0.00,,,0.14,TxWx,2013-06-28 01:18:00,
2013-06-27 21:19:00,82.1,73.0,29.97,SSE,163,3.7,3.7,76,0.00,,,0.14,TxWx,2013-06-28 01:19:00,
2013-06-27 21:20:00,82.1,73.0,29.98,SSW,208,3.1,4.3,76,0.00,,,0.14,TxWx,2013-06-28 01:20:00,
2013-06-27 21:21:00,81.9,73.0,29.97,SSW,208,3.1,3.1,76,0.00,,,0.14,TxWx,2013-06-28 01:21:00,
2013-06-27 21:24:00,82.0,73.0,29.98,SSE,163,3.1,3.7,76,0.00,,,0.14,TxWx,2013-06-28 01:24:00,
2013-06-27 21:25:00,82.0,73.0,29.98,South,186,8.0,8.0,76,0.00,,,0.14,TxWx,2013-06-28 01:25:00,
2013-06-27 21:26:00,82.0,74.0,29.98,SSE,163,3.7,4.3,76,0.00,,,0.14,TxWx,2013-06-28 01:26:00,
2013-06-27 21:30:00,82.0,74.0,29.98,SE,141,8.7,8.7,76,0.00,,,0.14,TxWx,2013-06-28 01:30:00,
2013-06-27 21:31:00,82.0,74.0,29.98,SSE,163,5.0,5.0,76,0.00,,,0.14,TxWx,2013-06-28 01:31:00,
2013-06-27 21:34:00,82.0,74.0,29.98,SE,141,6.8,6.8,76,0.00,,,0.14,TxWx,2013-06-28 01:34:00,
2013-06-27 21:35:00,82.1,74.0,29.97,SE,141,5.0,5.0,77,0.00,,,0.14,TxWx,2013-06-28 01:35:00,
2013-06-27 21:37:00,82.0,74.0,29.98,SSE,163,1.9,2.5,77,0.00,,,0.14,TxWx,2013-06-28 01:37:00,
2013-06-27 21:38:00,81.8,74.0,29.98,ESE,118,5.6,6.2,76,0.00,,,0.14,TxWx,2013-06-28 01:38:00,
2013-06-27 21:40:00,81.9,74.0,29.98,SSE,163,5.0,5.6,77,0.00,,,0.14,TxWx,2013-06-28 01:40:00,
2013-06-27 21:42:00,81.8,74.0,29.98,South,186,5.0,5.0,77,0.00,,,0.14,TxWx,2013-06-28 01:42:00,
2013-06-27 21:43:00,81.8,74.0,29.98,ESE,118,4.3,5.0,77,0.00,,,0.14,TxWx,2013-06-28 01:43:00,
2013-06-27 21:48:00,81.9,74.0,29.98,SSW,208,6.8,6.8,77,0.00,,,0.14,TxWx,2013-06-28 01:48:00,
2013-06-27 21:49:00,81.8,74.0,29.98,South,186,5.6,6.2,77,0.00,,,0.14,TxWx,2013-06-28 01:49:00,
2013-06-27 21:51:00,81.7,74.0,29.98,SSE,163,3.7,3.7,77,0.00,,,0.14,TxWx,2013-06-28 01:51:00,
2013-06-27 21:53:00,81.7,74.0,29.98,South,186,2.5,3.1,77,0.00,,,0.14,TxWx,2013-06-28 01:53:00,
2013-06-27 21:54:00,81.7,74.0,29.98,SSW,208,6.2,6.2,77,0.00,,,0.14,TxWx,2013-06-28 01:54:00,
2013-06-27 21:57:00,81.7,74.0,29.99,SE,141,1.2,1.9,77,0.00,,,0.14,TxWx,2013-06-28 01:57:00,
2013-06-27 21:59:00,81.6,74.0,29.99,SSE,163,3.1,3.1,77,0.00,,,0.14,TxWx,2013-06-28 01:59:00,
2013-06-27 22:02:00,81.6,74.0,29.98,SSE,163,4.3,4.3,77,0.00,,,0.14,TxWx,2013-06-28 02:02:00,
2013-06-27 22:04:00,81.5,74.0,29.98,SSE,163,1.9,2.5,77,0.00,,,0.14,TxWx,2013-06-28 02:04:00,
2013-06-27 22:05:00,81.5,74.0,29.98,SSE,163,1.2,1.9,77,0.00,,,0.14,TxWx,2013-06-28 02:05:00,
2013-06-27 22:06:00,81.6,74.0,29.98,SSW,208,1.2,1.9,77,0.00,,,0.14,TxWx,2013-06-28 02:06:00,
2013-06-27 22:09:00,81.5,74.0,29.98,SW,231,2.5,2.5,77,0.00,,,0.14,TxWx,2013-06-28 02:09:00,
2013-06-27 22:10:00,81.5,74.0,29.99,South,186,3.1,3.1,77,0.00,,,0.14,TxWx,2013-06-28 02:10:00,
2013-06-27 22:11:00,81.5,74.0,29.99,SSW,208,1.9,1.9,77,0.00,,,0.14,TxWx,2013-06-28 02:11:00,
2013-06-27 22:12:00,81.5,74.0,29.99,SSE,163,1.2,1.2,77,0.00,,,0.14,TxWx,2013-06-28 02:12:00,
2013-06-27 22:15:00,81.6,74.0,29.99,SSW,208,1.2,1.9,77,0.00,,,0.14,TxWx,2013-06-28 02:15:00,
2013-06-27 22:16:00,81.5,73.0,29.98,SSW,208,1.9,2.5,77,0.00,,,0.14,TxWx,2013-06-28 02:16:00,
2013-06-27 22:17:00,81.5,73.0,29.98,SW,231,0.6,1.2,77,0.00,,,0.14,TxWx,2013-06-28 02:17:00,
2013-06-27 22:20:00,81.4,73.0,29.99,WSW,253,1.2,1.2,77,0.00,,,0.14,TxWx,2013-06-28 02:20:00,
2013-06-27 22:23:00,81.4,73.0,29.99,SW,231,1.2,1.2,77,0.00,,,0.14,TxWx,2013-06-28 02:23:00,
2013-06-27 22:26:00,81.3,73.0,29.99,South,186,1.2,1.2,77,0.00,,,0.14,TxWx,2013-06-28 02:26:00,
2013-06-27 22:27:00,81.3,73.0,29.99,SSE,163,3.1,4.3,77,0.00,,,0.14,TxWx,2013-06-28 02:27:00,
2013-06-27 22:29:00,81.3,73.0,29.99,SSE,163,2.5,2.5,77,0.00,,,0.14,TxWx,2013-06-28 02:29:00,
2013-06-27 22:31:00,81.4,73.0,29.99,SSW,208,3.1,3.7,77,0.00,,,0.14,TxWx,2013-06-28 02:31:00,
2013-06-27 22:33:00,81.4,73.0,29.99,SSW,208,1.9,2.5,77,0.00,,,0.14,TxWx,2013-06-28 02:33:00,
2013-06-27 22:35:00,81.5,73.0,29.99,SSE,163,3.7,4.3,77,0.00,,,0.14,TxWx,2013-06-28 02:35:00,
2013-06-27 22:36:00,81.5,73.0,29.99,SW,231,3.1,3.1,77,0.00,,,0.14,TxWx,2013-06-28 02:36:00,
2013-06-27 22:39:00,81.6,74.0,29.99,SSW,208,1.9,1.9,77,0.00,,,0.14,TxWx,2013-06-28 02:39:00,
2013-06-27 22:40:00,81.6,74.0,29.99,SSW,208,3.1,3.1,77,0.00,,,0.14,TxWx,2013-06-28 02:40:00,
2013-06-27 22:41:00,81.6,74.0,29.99,SE,141,1.2,1.2,77,0.00,,,0.14,TxWx,2013-06-28 02:41:00,
2013-06-27 22:43:00,81.5,74.0,29.99,SSW,208,2.5,2.5,77,0.00,,,0.14,TxWx,2013-06-28 02:43:00,
2013-06-27 22:45:00,81.5,74.0,29.99,SSE,163,1.9,1.9,77,0.00,,,0.14,TxWx,2013-06-28 02:45:00,
2013-06-27 22:47:00,81.5,73.0,29.99,SSW,208,1.9,1.9,77,0.00,,,0.14,TxWx,2013-06-28 02:47:00,
2013-06-27 22:49:00,81.4,73.0,29.99,South,186,2.5,3.1,77,0.00,,,0.14,TxWx,2013-06-28 02:49:00,
2013-06-27 22:51:00,81.4,73.0,29.99,SE,141,1.9,2.5,77,0.00,,,0.14,TxWx,2013-06-28 02:51:00,
2013-06-27 22:53:00,81.4,73.0,29.99,South,186,2.5,2.5,77,0.00,,,0.14,TxWx,2013-06-28 02:53:00,
2013-06-27 22:54:00,81.4,73.0,29.99,SSW,208,1.9,2.5,77,0.00,,,0.14,TxWx,2013-06-28 02:54:00,
2013-06-27 22:56:00,81.4,73.0,29.99,SW,231,1.9,1.9,77,0.00,,,0.14,TxWx,2013-06-28 02:56:00,
2013-06-27 22:57:00,81.4,73.0,29.99,SSW,208,1.9,1.9,77,0.00,,,0.14,TxWx,2013-06-28 02:57:00,
2013-06-27 22:58:00,81.4,73.0,29.99,SSW,208,1.9,1.9,77,0.00,,,0.14,TxWx,2013-06-28 02:58:00,
2013-06-27 23:01:00,81.4,73.0,29.99,South,186,0.6,0.6,77,0.00,,,0.14,TxWx,2013-06-28 03:01:00,
2013-06-27 23:02:00,81.4,73.0,29.99,South,186,1.2,1.2,77,0.00,,,0.14,TxWx,2013-06-28 03:02:00,
2013-06-27 23:06:00,81.4,73.0,30.00,South,186,3.1,3.7,77,0.00,,,0.14,TxWx,2013-06-28 03:06:00,
2013-06-27 23:08:00,81.4,73.0,30.00,SW,231,3.1,3.1,77,0.00,,,0.14,TxWx,2013-06-28 03:08:00,
2013-06-27 23:09:00,81.3,73.0,30.00,SE,141,1.9,2.5,77,0.00,,,0.14,TxWx,2013-06-28 03:09:00,
2013-06-27 23:11:00,81.4,73.0,30.00,SSE,163,2.5,2.5,77,0.00,,,0.14,TxWx,2013-06-28 03:11:00,
2013-06-27 23:14:00,81.5,73.0,30.00,SSW,208,3.7,3.7,77,0.00,,,0.14,TxWx,2013-06-28 03:14:00,
2013-06-27 23:15:00,81.6,74.0,30.00,ESE,118,3.7,3.7,77,0.00,,,0.14,TxWx,2013-06-28 03:15:00,
2013-06-27 23:17:00,81.7,74.0,30.00,SSW,208,1.2,1.9,77,0.00,,,0.14,TxWx,2013-06-28 03:17:00,
2013-06-27 23:21:00,81.6,74.0,30.00,SSE,163,1.2,1.2,77,0.00,,,0.14,TxWx,2013-06-28 03:21:00,
2013-06-27 23:22:00,81.5,74.0,30.00,SE,141,3.7,4.3,77,0.00,,,0.14,TxWx,2013-06-28 03:22:00,
2013-06-27 23:24:00,81.6,74.0,30.00,SSW,208,3.7,3.7,77,0.00,,,0.14,TxWx,2013-06-28 03:24:00,
2013-06-27 23:27:00,81.5,74.0,30.00,SSW,208,2.5,2.5,77,0.00,,,0.14,TxWx,2013-06-28 03:27:00,
2013-06-27 23:28:00,81.6,74.0,30.00,SSW,208,1.9,1.9,77,0.00,,,0.14,TxWx,2013-06-28 03:28:00,
2013-06-27 23:30:00,81.5,74.0,30.00,South,186,2.5,2.5,77,0.00,,,0.14,TxWx,2013-06-28 03:30:00,
2013-06-27 23:34:00,81.5,74.0,30.00,SSE,163,3.1,3.1,78,0.00,,,0.14,TxWx,2013-06-28 03:34:00,
2013-06-27 23:35:00,81.5,74.0,30.00,South,186,4.3,4.3,78,0.00,,,0.14,TxWx,2013-06-28 03:35:00,
2013-06-27 23:36:00,81.5,74.0,30.00,SSE,163,4.3,5.0,78,0.00,,,0.14,TxWx,2013-06-28 03:36:00,
2013-06-27 23:40:00,81.6,74.0,30.00,SSE,163,5.0,5.6,78,0.00,,,0.14,TxWx,2013-06-28 03:40:00,
2013-06-27 23:41:00,81.6,74.0,30.00,SE,141,6.8,6.8,78,0.00,,,0.14,TxWx,2013-06-28 03:41:00,
2013-06-27 23:42:00,81.6,74.0,30.00,SE,141,3.7,3.7,78,0.00,,,0.14,TxWx,2013-06-28 03:42:00,
2013-06-27 23:46:00,81.7,74.0,30.00,SSE,163,5.0,5.0,78,0.00,,,0.14,TxWx,2013-06-28 03:46:00,
2013-06-27 23:47:00,81.8,74.0,30.00,SSE,163,8.0,8.0,78,0.00,,,0.14,TxWx,2013-06-28 03:47:00,
2013-06-27 23:49:00,81.8,74.0,30.00,South,186,3.7,3.7,78,0.00,,,0.14,TxWx,2013-06-28 03:49:00,
2013-06-27 23:52:00,81.9,74.0,30.00,SSE,163,5.6,5.6,78,0.00,,,0.14,TxWx,2013-06-28 03:52:00,
2013-06-27 23:55:00,81.6,74.0,30.00,SE,141,5.6,6.8,77,0.00,,,0.14,TxWx,2013-06-28 03:55:00,
2013-06-27 23:57:00,81.7,74.0,30.00,SE,141,2.5,2.5,77,0.00,,,0.14,TxWx,2013-06-28 03:57:00,
2013-06-27 23:58:00,81.8,74.0,30.00,South,186,3.1,3.7,78,0.00,,,0.14,TxWx,2013-06-28 03:58:00,